Wetterdaten: Mittwoch, 24.05.2023
Datum Zeit Temp. 2m Temp +5 cm Feuchte A. Luftdruck Regen Wind Richtung Richtung Sonnenschein UV Solar Taupunkt Windchill Windben
24.05.2023 00:00 7,3 C 5,6 C 79 % 1023,6 hPa 0,0 l/m 12,4 km/h (3 Bft) N-NW 347 0 min 0,0 UV-I 0 W/m 3,9 C 3,2 C 17,7 km/h (3 Bft)
24.05.2023 00:03 7,3 C 5,6 C 79 % 1023,7 hPa 0,0 l/m 11,6 km/h (2 Bft) N 5 0 min 0,0 UV-I 0 W/m 3,9 C 3,6 C 17,7 km/h (3 Bft)
24.05.2023 00:06 7,2 C 5,0 C 79 % 1023,8 hPa 0,0 l/m 9,2 km/h (2 Bft) N 355 0 min 0,0 UV-I 0 W/m 3,8 C 5,0 C 14,5 km/h (3 Bft)
24.05.2023 00:09 7,2 C 5,0 C 79 % 1023,7 hPa 0,0 l/m 10,9 km/h (2 Bft) N 355 0 min 0,0 UV-I 0 W/m 3,8 C 3,9 C 16,1 km/h (3 Bft)
24.05.2023 00:12 7,1 C 5,0 C 80 % 1023,8 hPa 0,0 l/m 10,2 km/h (2 Bft) N-NW 348 0 min 0,0 UV-I 0 W/m 3,9 C 4,3 C 12,9 km/h (3 Bft)
24.05.2023 00:15 7,1 C 5,0 C 80 % 1023,7 hPa 0,0 l/m 11,2 km/h (2 Bft) N 355 0 min 0,0 UV-I 0 W/m 3,9 C 3,6 C 17,7 km/h (3 Bft)
24.05.2023 00:18 7,0 C 5,0 C 80 % 1023,8 hPa 0,0 l/m 10,3 km/h (2 Bft) N-NW 344 0 min 0,0 UV-I 0 W/m 3,8 C 4,1 C 16,1 km/h (3 Bft)
24.05.2023 00:21 7,0 C 5,0 C 80 % 1023,8 hPa 0,0 l/m 9,9 km/h (2 Bft) N 349 0 min 0,0 UV-I 0 W/m 3,8 C 4,3 C 12,9 km/h (3 Bft)
24.05.2023 00:24 6,9 C 5,0 C 80 % 1023,8 hPa 0,0 l/m 9,4 km/h (2 Bft) N 355 0 min 0,0 UV-I 0 W/m 3,7 C 4,6 C 14,5 km/h (3 Bft)
24.05.2023 00:27 6,9 C 5,0 C 81 % 1023,8 hPa 0,0 l/m 10,3 km/h (2 Bft) N 355 0 min 0,0 UV-I 0 W/m 3,9 C 4,0 C 17,7 km/h (3 Bft)
24.05.2023 00:30 6,8 C 4,4 C 81 % 1023,8 hPa 0,0 l/m 7,9 km/h (2 Bft) N 355 0 min 0,0 UV-I 0 W/m 3,8 C 5,6 C 12,9 km/h (3 Bft)
24.05.2023 00:33 6,7 C 4,4 C 81 % 1023,8 hPa 0,0 l/m 5,8 km/h (2 Bft) N 360 0 min 0,0 UV-I 0 W/m 3,7 C 6,7 C 8,0 km/h (2 Bft)
24.05.2023 00:36 6,6 C 4,4 C 81 % 1023,8 hPa 0,0 l/m 6,2 km/h (2 Bft) N 11 0 min 0,0 UV-I 0 W/m 3,6 C 6,6 C 12,9 km/h (3 Bft)
24.05.2023 00:39 6,4 C 3,9 C 82 % 1023,7 hPa 0,0 l/m 7,8 km/h (2 Bft) N-NW 345 0 min 0,0 UV-I 0 W/m 3,6 C 5,2 C 14,5 km/h (3 Bft)
24.05.2023 00:42 6,5 C 4,4 C 82 % 1023,8 hPa 0,0 l/m 10,3 km/h (2 Bft) N 355 0 min 0,0 UV-I 0 W/m 3,7 C 3,5 C 17,7 km/h (3 Bft)
24.05.2023 00:45 6,5 C 4,4 C 82 % 1023,8 hPa 0,0 l/m 10,9 km/h (2 Bft) N-NW 344 0 min 0,0 UV-I 0 W/m 3,7 C 3,1 C 17,7 km/h (3 Bft)
24.05.2023 00:48 6,6 C 4,4 C 82 % 1023,8 hPa 0,0 l/m 9,8 km/h (2 Bft) N 350 0 min 0,0 UV-I 0 W/m 3,8 C 4,0 C 14,5 km/h (3 Bft)
24.05.2023 00:51 6,4 C 4,4 C 82 % 1023,7 hPa 0,0 l/m 8,0 km/h (2 Bft) N 11 0 min 0,0 UV-I 0 W/m 3,6 C 5,1 C 12,9 km/h (3 Bft)
24.05.2023 00:54 6,3 C 4,4 C 82 % 1023,6 hPa 0,0 l/m 7,2 km/h (2 Bft) N 5 0 min 0,0 UV-I 0 W/m 3,5 C 5,6 C 12,9 km/h (3 Bft)
24.05.2023 00:57 6,2 C 4,4 C 82 % 1023,6 hPa 0,0 l/m 8,1 km/h (2 Bft) N 360 0 min 0,0 UV-I 0 W/m 3,4 C 4,8 C 12,9 km/h (3 Bft)
24.05.2023 01:00 6,2 C 4,4 C 83 % 1023,5 hPa 0,0 l/m 9,1 km/h (2 Bft) N-NW 343 0 min 0,0 UV-I 0 W/m 3,5 C 4,0 C 14,5 km/h (3 Bft)
24.05.2023 01:03 6,2 C 4,4 C 83 % 1023,5 hPa 0,0 l/m 9,4 km/h (2 Bft) N 355 0 min 0,0 UV-I 0 W/m 3,5 C 3,8 C 16,1 km/h (3 Bft)
24.05.2023 01:06 6,1 C 4,4 C 82 % 1023,4 hPa 0,0 l/m 5,7 km/h (1 Bft) N 355 0 min 0,0 UV-I 0 W/m 3,3 C 6,1 C 8,0 km/h (2 Bft)
24.05.2023 01:09 5,9 C 3,9 C 83 % 1023,5 hPa 0,0 l/m 7,4 km/h (2 Bft) N-NW 347 0 min 0,0 UV-I 0 W/m 3,2 C 5,0 C 14,5 km/h (3 Bft)
24.05.2023 01:12 5,9 C 3,9 C 83 % 1023,5 hPa 0,0 l/m 10,2 km/h (2 Bft) N 355 0 min 0,0 UV-I 0 W/m 3,2 C 2,9 C 17,7 km/h (3 Bft)
24.05.2023 01:15 6,0 C 3,9 C 84 % 1023,5 hPa 0,0 l/m 12,4 km/h (3 Bft) N 5 0 min 0,0 UV-I 0 W/m 3,5 C 1,7 C 17,7 km/h (3 Bft)
24.05.2023 01:18 6,1 C 4,4 C 83 % 1023,4 hPa 0,0 l/m 11,1 km/h (2 Bft) N 350 0 min 0,0 UV-I 0 W/m 3,4 C 2,6 C 16,1 km/h (3 Bft)
24.05.2023 01:21 6,0 C 4,4 C 83 % 1023,5 hPa 0,0 l/m 10,8 km/h (2 Bft) N 351 0 min 0,0 UV-I 0 W/m 3,3 C 2,6 C 17,7 km/h (3 Bft)
24.05.2023 01:24 6,0 C 4,4 C 83 % 1023,6 hPa 0,0 l/m 9,8 km/h (2 Bft) N 350 0 min 0,0 UV-I 0 W/m 3,3 C 3,3 C 16,1 km/h (3 Bft)
24.05.2023 01:27 6,0 C 4,4 C 83 % 1023,6 hPa 0,0 l/m 10,3 km/h (2 Bft) N 355 0 min 0,0 UV-I 0 W/m 3,3 C 3,0 C 14,5 km/h (3 Bft)
24.05.2023 01:30 5,9 C 4,4 C 83 % 1023,7 hPa 0,0 l/m 11,6 km/h (2 Bft) N-NW 347 0 min 0,0 UV-I 0 W/m 3,2 C 2,0 C 17,7 km/h (3 Bft)
24.05.2023 01:33 5,9 C 4,4 C 83 % 1023,6 hPa 0,0 l/m 12,6 km/h (3 Bft) N 5 0 min 0,0 UV-I 0 W/m 3,2 C 1,4 C 19,3 km/h (3 Bft)
24.05.2023 01:36 5,9 C 4,4 C 83 % 1023,6 hPa 0,0 l/m 13,3 km/h (3 Bft) N 355 0 min 0,0 UV-I 0 W/m 3,2 C 1,1 C 20,9 km/h (4 Bft)
24.05.2023 01:39 5,9 C 3,9 C 83 % 1023,6 hPa 0,0 l/m 9,7 km/h (2 Bft) N-NW 348 0 min 0,0 UV-I 0 W/m 3,2 C 3,3 C 14,5 km/h (3 Bft)
24.05.2023 01:42 5,8 C 3,9 C 83 % 1023,6 hPa 0,0 l/m 7,0 km/h (2 Bft) N-NO 18 0 min 0,0 UV-I 0 W/m 3,1 C 5,3 C 12,9 km/h (3 Bft)
24.05.2023 01:45 5,7 C 3,9 C 83 % 1023,7 hPa 0,0 l/m 10,4 km/h (2 Bft) N-NO 24 0 min 0,0 UV-I 0 W/m 3,0 C 2,6 C 17,7 km/h (3 Bft)
24.05.2023 01:48 5,6 C 3,9 C 83 % 1023,6 hPa 0,0 l/m 8,8 km/h (2 Bft) N 10 0 min 0,0 UV-I 0 W/m 2,9 C 3,6 C 17,7 km/h (3 Bft)
24.05.2023 01:51 5,5 C 3,9 C 83 % 1023,7 hPa 0,0 l/m 7,1 km/h (2 Bft) N 360 0 min 0,0 UV-I 0 W/m 2,8 C 4,9 C 12,9 km/h (3 Bft)
24.05.2023 01:54 5,4 C 3,9 C 83 % 1023,8 hPa 0,0 l/m 7,0 km/h (2 Bft) N-NO 21 0 min 0,0 UV-I 0 W/m 2,7 C 4,9 C 14,5 km/h (3 Bft)
24.05.2023 01:57 5,3 C 3,3 C 84 % 1023,6 hPa 0,0 l/m 6,6 km/h (2 Bft) N 355 0 min 0,0 UV-I 0 W/m 2,8 C 5,1 C 11,3 km/h (2 Bft)
24.05.2023 02:00 5,2 C 3,3 C 84 % 1023,8 hPa 0,0 l/m 7,0 km/h (2 Bft) N 11 0 min 0,0 UV-I 0 W/m 2,7 C 4,7 C 9,7 km/h (2 Bft)
24.05.2023 02:03 5,2 C 3,3 C 84 % 1023,8 hPa 0,0 l/m 7,2 km/h (2 Bft) N-NW 340 0 min 0,0 UV-I 0 W/m 2,7 C 4,5 C 12,9 km/h (3 Bft)
24.05.2023 02:06 5,2 C 3,3 C 84 % 1023,8 hPa 0,0 l/m 9,6 km/h (2 Bft) N 355 0 min 0,0 UV-I 0 W/m 2,7 C 2,6 C 16,1 km/h (3 Bft)
24.05.2023 02:09 5,2 C 3,3 C 84 % 1023,7 hPa 0,0 l/m 7,4 km/h (2 Bft) N-NW 342 0 min 0,0 UV-I 0 W/m 2,7 C 4,3 C 12,9 km/h (3 Bft)
24.05.2023 02:12 5,2 C 3,3 C 84 % 1023,9 hPa 0,0 l/m 8,8 km/h (2 Bft) N 355 0 min 0,0 UV-I 0 W/m 2,7 C 3,2 C 14,5 km/h (3 Bft)
24.05.2023 02:15 5,2 C 3,3 C 84 % 1024,0 hPa 0,0 l/m 9,5 km/h (2 Bft) N-NW 344 0 min 0,0 UV-I 0 W/m 2,7 C 2,7 C 14,5 km/h (3 Bft)
24.05.2023 02:18 5,2 C 3,3 C 84 % 1024,0 hPa 0,0 l/m 7,7 km/h (2 Bft) NW 315 0 min 0,0 UV-I 0 W/m 2,7 C 4,1 C 14,5 km/h (3 Bft)
24.05.2023 02:21 5,1 C 3,3 C 84 % 1024,0 hPa 0,0 l/m 8,1 km/h (2 Bft) N-NW 344 0 min 0,0 UV-I 0 W/m 2,6 C 3,6 C 14,5 km/h (3 Bft)
24.05.2023 02:24 5,2 C 3,3 C 84 % 1024,0 hPa 0,0 l/m 9,3 km/h (2 Bft) N 351 0 min 0,0 UV-I 0 W/m 2,7 C 2,8 C 14,5 km/h (3 Bft)
24.05.2023 02:27 5,2 C 3,3 C 84 % 1024,1 hPa 0,0 l/m 10,8 km/h (2 Bft) N-NW 347 0 min 0,0 UV-I 0 W/m 2,7 C 1,7 C 16,1 km/h (3 Bft)
24.05.2023 02:30 5,1 C 3,3 C 84 % 1024,0 hPa 0,0 l/m 9,2 km/h (2 Bft) N 10 0 min 0,0 UV-I 0 W/m 2,6 C 2,8 C 16,1 km/h (3 Bft)
24.05.2023 02:33 5,1 C 3,3 C 84 % 1023,9 hPa 0,0 l/m 7,9 km/h (2 Bft) N 11 0 min 0,0 UV-I 0 W/m 2,6 C 3,8 C 12,9 km/h (3 Bft)
24.05.2023 02:36 5,0 C 3,3 C 84 % 1024,0 hPa 0,0 l/m 7,9 km/h (2 Bft) N-NW 346 0 min 0,0 UV-I 0 W/m 2,5 C 3,7 C 14,5 km/h (3 Bft)
24.05.2023 02:39 4,9 C 2,8 C 84 % 1023,9 hPa 0,0 l/m 8,9 km/h (2 Bft) N 5 0 min 0,0 UV-I 0 W/m 2,4 C 2,8 C 14,5 km/h (3 Bft)
24.05.2023 02:42 4,9 C 2,8 C 84 % 1024,2 hPa 0,0 l/m 8,3 km/h (2 Bft) N 355 0 min 0,0 UV-I 0 W/m 2,4 C 3,3 C 12,9 km/h (3 Bft)
24.05.2023 02:45 4,9 C 2,8 C 84 % 1024,1 hPa 0,0 l/m 9,4 km/h (2 Bft) W-NW 301 0 min 0,0 UV-I 0 W/m 2,4 C 2,4 C 14,5 km/h (3 Bft)
24.05.2023 02:48 4,8 C 2,8 C 84 % 1024,0 hPa 0,0 l/m 7,6 km/h (2 Bft) N 5 0 min 0,0 UV-I 0 W/m 2,3 C 3,7 C 12,9 km/h (3 Bft)
24.05.2023 02:51 4,7 C 2,8 C 85 % 1024,0 hPa 0,0 l/m 7,5 km/h (2 Bft) N-NW 348 0 min 0,0 UV-I 0 W/m 2,4 C 3,7 C 9,7 km/h (2 Bft)
24.05.2023 02:54 4,7 C 2,8 C 85 % 1024,0 hPa 0,0 l/m 8,7 km/h (2 Bft) N 350 0 min 0,0 UV-I 0 W/m 2,4 C 2,7 C 12,9 km/h (3 Bft)
24.05.2023 02:57 4,7 C 2,8 C 85 % 1024,1 hPa 0,0 l/m 7,8 km/h (2 Bft) N 351 0 min 0,0 UV-I 0 W/m 2,4 C 3,5 C 12,9 km/h (3 Bft)
24.05.2023 03:00 4,6 C 2,8 C 85 % 1024,0 hPa 0,0 l/m 8,4 km/h (2 Bft) N 355 0 min 0,0 UV-I 0 W/m 2,3 C 2,9 C 14,5 km/h (3 Bft)
24.05.2023 03:03 4,6 C 2,8 C 85 % 1024,1 hPa 0,0 l/m 8,2 km/h (2 Bft) N 355 0 min 0,0 UV-I 0 W/m 2,3 C 3,0 C 12,9 km/h (3 Bft)
24.05.2023 03:06 4,6 C 2,8 C 85 % 1024,1 hPa 0,0 l/m 9,0 km/h (2 Bft) N 355 0 min 0,0 UV-I 0 W/m 2,3 C 2,4 C 16,1 km/h (3 Bft)
24.05.2023 03:09 4,6 C 2,8 C 85 % 1024,0 hPa 0,0 l/m 7,5 km/h (2 Bft) N 350 0 min 0,0 UV-I 0 W/m 2,3 C 3,6 C 12,9 km/h (3 Bft)
24.05.2023 03:12 4,4 C 2,8 C 85 % 1024,0 hPa 0,0 l/m 6,9 km/h (2 Bft) N 355 0 min 0,0 UV-I 0 W/m 2,1 C 4,0 C 9,7 km/h (2 Bft)
24.05.2023 03:15 4,4 C 2,8 C 85 % 1024,0 hPa 0,0 l/m 7,2 km/h (2 Bft) N-NW 348 0 min 0,0 UV-I 0 W/m 2,1 C 3,7 C 9,7 km/h (2 Bft)
24.05.2023 03:18 4,4 C 2,8 C 85 % 1024,0 hPa 0,0 l/m 6,3 km/h (2 Bft) N 360 0 min 0,0 UV-I 0 W/m 2,1 C 4,4 C 9,7 km/h (2 Bft)
24.05.2023 03:21 4,3 C 2,2 C 86 % 1023,9 hPa 0,0 l/m 5,3 km/h (1 Bft) N 5 0 min 0,0 UV-I 0 W/m 2,2 C 4,3 C 8,0 km/h (2 Bft)
24.05.2023 03:24 4,2 C 2,2 C 86 % 1023,9 hPa 0,0 l/m 5,7 km/h (1 Bft) N 355 0 min 0,0 UV-I 0 W/m 2,1 C 4,2 C 9,7 km/h (2 Bft)
24.05.2023 03:27 4,1 C 2,2 C 86 % 1023,8 hPa 0,0 l/m 5,7 km/h (1 Bft) N 5 0 min 0,0 UV-I 0 W/m 2,0 C 4,1 C 9,7 km/h (2 Bft)
24.05.2023 03:30 4,0 C 2,2 C 86 % 1023,9 hPa 0,0 l/m 4,5 km/h (1 Bft) N 5 0 min 0,0 UV-I 0 W/m 1,9 C 4,0 C 6,4 km/h (2 Bft)
24.05.2023 03:33 3,9 C 1,7 C 86 % 1024,0 hPa 0,0 l/m 5,8 km/h (2 Bft) N 5 0 min 0,0 UV-I 0 W/m 1,8 C 3,9 C 8,0 km/h (2 Bft)
24.05.2023 03:36 3,9 C 1,7 C 86 % 1023,9 hPa 0,0 l/m 5,5 km/h (1 Bft) N 5 0 min 0,0 UV-I 0 W/m 1,8 C 3,9 C 8,0 km/h (2 Bft)
24.05.2023 03:39 3,9 C 1,7 C 87 % 1023,9 hPa 0,0 l/m 6,5 km/h (2 Bft) N 355 0 min 0,0 UV-I 0 W/m 1,9 C 3,8 C 9,7 km/h (2 Bft)
24.05.2023 03:42 3,9 C 1,7 C 87 % 1023,9 hPa 0,0 l/m 5,7 km/h (1 Bft) N 5 0 min 0,0 UV-I 0 W/m 1,9 C 3,9 C 8,0 km/h (2 Bft)
24.05.2023 03:45 3,8 C 1,7 C 87 % 1023,9 hPa 0,0 l/m 5,3 km/h (1 Bft) N 5 0 min 0,0 UV-I 0 W/m 1,8 C 3,8 C 6,4 km/h (2 Bft)
24.05.2023 03:48 3,8 C 1,7 C 87 % 1023,8 hPa 0,0 l/m 5,4 km/h (1 Bft) N 355 0 min 0,0 UV-I 0 W/m 1,8 C 3,8 C 8,0 km/h (2 Bft)
24.05.2023 03:51 3,7 C 1,7 C 87 % 1024,0 hPa 0,0 l/m 5,8 km/h (2 Bft) N 355 0 min 0,0 UV-I 0 W/m 1,7 C 3,7 C 8,0 km/h (2 Bft)
24.05.2023 03:54 3,7 C 1,7 C 87 % 1023,9 hPa 0,0 l/m 5,7 km/h (1 Bft) N 355 0 min 0,0 UV-I 0 W/m 1,7 C 3,7 C 8,0 km/h (2 Bft)
24.05.2023 03:57 3,7 C 1,7 C 87 % 1023,9 hPa 0,0 l/m 4,5 km/h (1 Bft) N 355 0 min 0,0 UV-I 0 W/m 1,7 C 3,7 C 6,4 km/h (2 Bft)
24.05.2023 04:00 3,6 C 1,7 C 87 % 1023,9 hPa 0,0 l/m 5,4 km/h (1 Bft) N 355 0 min 0,0 UV-I 0 W/m 1,6 C 3,6 C 8,0 km/h (2 Bft)
24.05.2023 04:03 3,6 C 1,1 C 87 % 1024,0 hPa 0,0 l/m 6,6 km/h (2 Bft) N 355 0 min 0,0 UV-I 0 W/m 1,6 C 3,4 C 8,0 km/h (2 Bft)
24.05.2023 04:06 3,4 C 1,1 C 87 % 1023,9 hPa 0,0 l/m 5,8 km/h (2 Bft) N 355 0 min 0,0 UV-I 0 W/m 1,4 C 3,4 C 8,0 km/h (2 Bft)
24.05.2023 04:09 3,4 C 1,7 C 87 % 1023,9 hPa 0,0 l/m 5,3 km/h (1 Bft) N 355 0 min 0,0 UV-I 0 W/m 1,4 C 3,4 C 6,4 km/h (2 Bft)
24.05.2023 04:12 3,4 C 1,1 C 88 % 1024,0 hPa 0,0 l/m 6,1 km/h (2 Bft) N 5 0 min 0,0 UV-I 0 W/m 1,6 C 3,4 C 9,7 km/h (2 Bft)
24.05.2023 04:15 3,4 C 1,1 C 88 % 1024,0 hPa 0,0 l/m 6,4 km/h (2 Bft) N 355 0 min 0,0 UV-I 0 W/m 1,6 C 3,4 C 8,0 km/h (2 Bft)
24.05.2023 04:18 3,4 C 1,1 C 88 % 1023,9 hPa 0,0 l/m 6,4 km/h (2 Bft) N 355 0 min 0,0 UV-I 0 W/m 1,6 C 3,4 C 8,0 km/h (2 Bft)
24.05.2023 04:21 3,4 C 1,1 C 88 % 1024,0 hPa 0,0 l/m 7,3 km/h (2 Bft) N 9 0 min 0,0 UV-I 0 W/m 1,6 C 2,6 C 11,3 km/h (2 Bft)
24.05.2023 04:24 3,4 C 1,1 C 88 % 1024,0 hPa 0,0 l/m 7,2 km/h (2 Bft) N-NW 345 0 min 0,0 UV-I 0 W/m 1,6 C 2,7 C 9,7 km/h (2 Bft)
24.05.2023 04:27 3,4 C 1,1 C 88 % 1023,9 hPa 0,0 l/m 7,1 km/h (2 Bft) N 9 0 min 0,0 UV-I 0 W/m 1,6 C 2,7 C 9,7 km/h (2 Bft)
24.05.2023 04:30 3,4 C 1,1 C 88 % 1024,0 hPa 0,0 l/m 4,9 km/h (1 Bft) N 5 0 min 0,0 UV-I 0 W/m 1,6 C 3,4 C 6,4 km/h (2 Bft)
24.05.2023 04:33 3,3 C 1,1 C 88 % 1023,9 hPa 0,0 l/m 3,6 km/h (1 Bft) N 5 0 min 0,0 UV-I 0 W/m 1,5 C 3,3 C 4,8 km/h (1 Bft)
24.05.2023 04:36 3,2 C 1,1 C 88 % 1023,9 hPa 0,0 l/m 4,2 km/h (1 Bft) N 5 0 min 0,0 UV-I 0 W/m 1,4 C 3,2 C 6,4 km/h (2 Bft)
24.05.2023 04:39 3,2 C 1,1 C 88 % 1023,9 hPa 0,0 l/m 4,4 km/h (1 Bft) N 5 0 min 0,0 UV-I 0 W/m 1,4 C 3,2 C 6,4 km/h (2 Bft)
24.05.2023 04:42 3,2 C 1,1 C 88 % 1023,9 hPa 0,0 l/m 2,8 km/h (1 Bft) N 5 0 min 0,0 UV-I 0 W/m 1,4 C 3,2 C 4,8 km/h (1 Bft)
24.05.2023 04:45 3,2 C 1,1 C 88 % 1023,9 hPa 0,0 l/m 2,9 km/h (1 Bft) N 5 0 min 0,0 UV-I 0 W/m 1,4 C 3,2 C 4,8 km/h (1 Bft)
24.05.2023 04:48 3,1 C 1,1 C 88 % 1023,9 hPa 0,0 l/m 3,4 km/h (1 Bft) N 5 0 min 0,0 UV-I 0 W/m 1,3 C 3,1 C 4,8 km/h (1 Bft)
24.05.2023 04:51 3,1 C 1,1 C 88 % 1023,8 hPa 0,0 l/m 3,5 km/h (1 Bft) N 5 0 min 0,0 UV-I 0 W/m 1,3 C 3,1 C 4,8 km/h (1 Bft)
24.05.2023 04:54 3,1 C 1,1 C 88 % 1023,8 hPa 0,0 l/m 2,3 km/h (1 Bft) N 5 0 min 0,0 UV-I 0 W/m 1,3 C 3,1 C 3,2 km/h (1 Bft)
24.05.2023 04:57 3,0 C 1,1 C 88 % 1023,8 hPa 0,0 l/m 2,8 km/h (1 Bft) N 5 0 min 0,0 UV-I 0 W/m 1,2 C 3,0 C 3,2 km/h (1 Bft)
24.05.2023 05:00 3,0 C 1,1 C 88 % 1023,8 hPa 0,0 l/m 3,1 km/h (1 Bft) N 5 0 min 0,0 UV-I 0 W/m 1,2 C 3,0 C 4,8 km/h (1 Bft)
24.05.2023 05:03 3,0 C 0,6 C 88 % 1023,7 hPa 0,0 l/m 2,7 km/h (1 Bft) N 5 0 min 0,0 UV-I 0 W/m 1,2 C 3,0 C 4,8 km/h (1 Bft)
24.05.2023 05:06 2,9 C 0,6 C 88 % 1023,7 hPa 0,0 l/m 2,4 km/h (1 Bft) N 5 0 min 0,0 UV-I 0 W/m 1,1 C 2,9 C 3,2 km/h (1 Bft)
24.05.2023 05:09 2,9 C 0,6 C 89 % 1023,7 hPa 0,0 l/m 1,9 km/h (1 Bft) N 5 0 min 0,0 UV-I 0 W/m 1,3 C 2,9 C 3,2 km/h (1 Bft)
24.05.2023 05:12 2,9 C 0,6 C 89 % 1023,7 hPa 0,0 l/m 2,3 km/h (1 Bft) N 5 0 min 0,0 UV-I 0 W/m 1,3 C 2,9 C 3,2 km/h (1 Bft)
24.05.2023 05:15 2,9 C 0,6 C 89 % 1023,7 hPa 0,0 l/m 2,2 km/h (1 Bft) N 5 0 min 0,0 UV-I 0 W/m 1,3 C 2,9 C 3,2 km/h (1 Bft)
24.05.2023 05:18 2,9 C 0,6 C 89 % 1023,7 hPa 0,0 l/m 2,8 km/h (1 Bft) N 5 0 min 0,0 UV-I 0 W/m 1,3 C 2,9 C 3,2 km/h (1 Bft)
24.05.2023 05:21 2,9 C 0,6 C 89 % 1023,8 hPa 0,0 l/m 2,8 km/h (1 Bft) N 5 0 min 0,0 UV-I 0 W/m 1,3 C 2,9 C 4,8 km/h (1 Bft)
24.05.2023 05:24 2,8 C 0,0 C 88 % 1023,8 hPa 0,0 l/m 3,1 km/h (1 Bft) N 5 0 min 0,0 UV-I 0 W/m 1,0 C 2,8 C 4,8 km/h (1 Bft)
24.05.2023 05:27 2,8 C 0,0 C 89 % 1023,7 hPa 0,0 l/m 3,9 km/h (1 Bft) N 5 0 min 0,0 UV-I 0 W/m 1,2 C 2,8 C 6,4 km/h (2 Bft)
24.05.2023 05:30 2,8 C 0,0 C 89 % 1023,8 hPa 0,0 l/m 3,0 km/h (1 Bft) N 5 0 min 0,0 UV-I 0 W/m 1,2 C 2,8 C 4,8 km/h (1 Bft)
24.05.2023 05:33 2,4 C 0,6 C 87 % 1023,8 hPa 0,0 l/m 2,6 km/h (1 Bft) N 5 0 min 0,0 UV-I 0 W/m 0,5 C 2,4 C 4,8 km/h (1 Bft)
24.05.2023 05:36 2,1 C 0,6 C 88 % 1023,7 hPa 0,0 l/m 1,5 km/h (1 Bft) N 5 0 min 0,0 UV-I 1 W/m 0,3 C 2,1 C 3,2 km/h (1 Bft)
24.05.2023 05:39 1,9 C 0,0 C 88 % 1023,8 hPa 0,0 l/m 0,7 km/h (0 Bft) N 5 0 min 0,0 UV-I 5 W/m 0,1 C 1,9 C 1,6 km/h (1 Bft)
24.05.2023 05:42 1,8 C 0,0 C 89 % 1023,9 hPa 0,0 l/m 0,1 km/h (0 Bft) N 5 0 min 0,0 UV-I 7 W/m 0,2 C 1,8 C 1,6 km/h (1 Bft)
24.05.2023 05:45 1,7 C 0,0 C 89 % 1023,8 hPa 0,0 l/m 0,0 km/h (0 Bft) N 5 0 min 0,0 UV-I 9 W/m 0,1 C 1,7 C 0,0 km/h (0 Bft)
24.05.2023 05:48 1,7 C 0,0 C 89 % 1023,8 hPa 0,0 l/m 0,1 km/h (0 Bft) N 5 0 min 0,0 UV-I 11 W/m 0,1 C 1,7 C 1,6 km/h (1 Bft)
24.05.2023 05:51 1,9 C 0,0 C 89 % 1023,8 hPa 0,0 l/m 0,0 km/h (0 Bft) N 5 0 min 0,0 UV-I 12 W/m 0,3 C 1,9 C 0,0 km/h (0 Bft)
24.05.2023 05:54 2,0 C 0,6 C 89 % 1023,9 hPa 0,0 l/m 0,0 km/h (0 Bft) N 5 0 min 0,0 UV-I 14 W/m 0,4 C 2,0 C 0,0 km/h (0 Bft)
24.05.2023 05:57 2,0 C 0,6 C 89 % 1024,0 hPa 0,0 l/m 1,1 km/h (1 Bft) N 5 0 min 0,0 UV-I 16 W/m 0,4 C 2,0 C 4,8 km/h (1 Bft)
24.05.2023 06:00 1,9 C 0,6 C 89 % 1023,9 hPa 0,0 l/m 1,8 km/h (1 Bft) N 5 0 min 0,0 UV-I 18 W/m 0,3 C 1,9 C 3,2 km/h (1 Bft)
24.05.2023 06:03 1,8 C 0,6 C 89 % 1024,0 hPa 0,0 l/m 1,1 km/h (1 Bft) N 5 0 min 0,0 UV-I 19 W/m 0,2 C 1,8 C 4,8 km/h (1 Bft)
24.05.2023 06:06 2,1 C 0,6 C 90 % 1023,9 hPa 0,0 l/m 3,4 km/h (1 Bft) N 360 0 min 0,0 UV-I 21 W/m 0,6 C 2,1 C 6,4 km/h (2 Bft)
24.05.2023 06:09 2,2 C 0,6 C 90 % 1023,9 hPa 0,0 l/m 3,8 km/h (1 Bft) N 360 0 min 0,0 UV-I 22 W/m 0,7 C 2,2 C 6,4 km/h (2 Bft)
24.05.2023 06:12 2,3 C 0,6 C 90 % 1023,9 hPa 0,0 l/m 3,3 km/h (1 Bft) N 360 0 min 0,0 UV-I 24 W/m 0,8 C 2,3 C 4,8 km/h (1 Bft)
24.05.2023 06:15 2,1 C 0,6 C 89 % 1023,9 hPa 0,0 l/m 0,6 km/h (0 Bft) N 360 0 min 0,0 UV-I 25 W/m 0,5 C 2,1 C 1,6 km/h (1 Bft)
24.05.2023 06:18 1,7 C 0,6 C 89 % 1023,9 hPa 0,0 l/m 0,1 km/h (0 Bft) N 360 0 min 0,0 UV-I 26 W/m 0,1 C 1,7 C 1,6 km/h (1 Bft)
24.05.2023 06:21 1,6 C 0,6 C 90 % 1023,9 hPa 0,0 l/m 1,2 km/h (1 Bft) N 360 0 min 0,0 UV-I 29 W/m 0,1 C 1,6 C 3,2 km/h (1 Bft)
24.05.2023 06:24 1,6 C 1,1 C 90 % 1023,9 hPa 0,0 l/m 0,3 km/h (0 Bft) N 360 0 min 0,0 UV-I 33 W/m 0,1 C 1,6 C 1,6 km/h (1 Bft)
24.05.2023 06:27 1,8 C 1,1 C 90 % 1023,8 hPa 0,0 l/m 0,0 km/h (0 Bft) N 360 0 min 0,0 UV-I 37 W/m 0,3 C 1,8 C 0,0 km/h (0 Bft)
24.05.2023 06:30 1,9 C 1,7 C 90 % 1023,9 hPa 0,0 l/m 0,0 km/h (0 Bft) N 360 0 min 0,0 UV-I 41 W/m 0,4 C 1,9 C 0,0 km/h (0 Bft)
24.05.2023 06:33 2,1 C 1,7 C 90 % 1023,9 hPa 0,0 l/m 0,0 km/h (0 Bft) N 360 0 min 0,0 UV-I 47 W/m 0,6 C 2,1 C 0,0 km/h (0 Bft)
24.05.2023 06:36 2,3 C 1,7 C 90 % 1023,9 hPa 0,0 l/m 0,2 km/h (0 Bft) N 360 0 min 0,0 UV-I 52 W/m 0,8 C 2,3 C 1,6 km/h (1 Bft)
24.05.2023 06:39 2,3 C 1,7 C 90 % 1023,8 hPa 0,0 l/m 0,4 km/h (0 Bft) N 360 0 min 0,0 UV-I 58 W/m 0,8 C 2,3 C 1,6 km/h (1 Bft)
24.05.2023 06:42 2,3 C 1,7 C 90 % 1023,9 hPa 0,0 l/m 0,0 km/h (0 Bft) N 360 0 min 0,0 UV-I 63 W/m 0,8 C 2,3 C 0,0 km/h (0 Bft)
24.05.2023 06:45 2,4 C 1,7 C 90 % 1023,9 hPa 0,0 l/m 0,0 km/h (0 Bft) N 360 0 min 0,0 UV-I 69 W/m 0,9 C 2,4 C 0,0 km/h (0 Bft)
24.05.2023 06:48 2,6 C 2,2 C 90 % 1024,0 hPa 0,0 l/m 0,0 km/h (0 Bft) N 360 0 min 0,0 UV-I 74 W/m 1,1 C 2,6 C 0,0 km/h (0 Bft)
24.05.2023 06:51 2,8 C 2,2 C 90 % 1024,1 hPa 0,0 l/m 0,6 km/h (0 Bft) N 360 0 min 0,0 UV-I 80 W/m 1,3 C 2,8 C 3,2 km/h (1 Bft)
24.05.2023 06:54 2,9 C 2,8 C 90 % 1024,2 hPa 0,0 l/m 1,0 km/h (0 Bft) N 360 0 min 0,0 UV-I 87 W/m 1,4 C 2,9 C 3,2 km/h (1 Bft)
24.05.2023 06:57 2,8 C 2,8 C 90 % 1024,2 hPa 0,0 l/m 0,6 km/h (0 Bft) N 360 0 min 0,0 UV-I 93 W/m 1,3 C 2,8 C 1,6 km/h (1 Bft)
24.05.2023 07:00 2,9 C 2,8 C 89 % 1024,1 hPa 0,0 l/m 0,5 km/h (0 Bft) N 360 0 min 0,0 UV-I 98 W/m 1,3 C 2,9 C 1,6 km/h (1 Bft)
24.05.2023 07:01 2,9 C 2,8 C 89 % 1024,3 hPa 0,0 l/m 0,0 km/h (0 Bft) N 0 0 min 0,0 UV-I 100 W/m 1,3 C 2,9 C 0,0 km/h (0 Bft)
24.05.2023 07:03 2,9 C 3,3 C 89 % 1024,2 hPa 0,0 l/m 0,0 km/h (0 Bft) N 360 0 min 0,0 UV-I 100 W/m 1,3 C 2,9 C 0,0 km/h (0 Bft)
24.05.2023 07:06 3,1 C 3,3 C 89 % 1024,3 hPa 0,0 l/m 0,0 km/h (0 Bft) N 360 0 min 0,0 UV-I 100 W/m 1,5 C 3,1 C 0,0 km/h (0 Bft)
24.05.2023 07:09 3,2 C 3,9 C 89 % 1024,2 hPa 0,0 l/m 0,0 km/h (0 Bft) N 360 0 min 0,2 UV-I 104 W/m 1,6 C 3,2 C 1,6 km/h (1 Bft)
24.05.2023 07:12 3,3 C 3,9 C 89 % 1024,2 hPa 0,0 l/m 0,0 km/h (0 Bft) N 360 0 min 0,5 UV-I 112 W/m 1,7 C 3,3 C 0,0 km/h (0 Bft)
24.05.2023 07:15 3,4 C 4,4 C 89 % 1024,1 hPa 0,0 l/m 0,3 km/h (0 Bft) N 360 0 min 0,5 UV-I 124 W/m 1,8 C 3,4 C 1,6 km/h (1 Bft)
24.05.2023 07:18 3,7 C 4,4 C 89 % 1024,2 hPa 0,0 l/m 0,3 km/h (0 Bft) N 360 3 min 0,5 UV-I 139 W/m 2,1 C 3,7 C 1,6 km/h (1 Bft)
24.05.2023 07:21 4,1 C 4,4 C 89 % 1024,2 hPa 0,0 l/m 1,6 km/h (1 Bft) N-NO 25 3 min 0,6 UV-I 152 W/m 2,5 C 4,1 C 4,8 km/h (1 Bft)
24.05.2023 07:24 4,5 C 4,4 C 89 % 1024,3 hPa 0,0 l/m 3,2 km/h (1 Bft) N-NO 17 3 min 0,6 UV-I 160 W/m 2,8 C 4,5 C 4,8 km/h (1 Bft)
24.05.2023 07:27 4,9 C 5,0 C 89 % 1024,3 hPa 0,0 l/m 5,5 km/h (1 Bft) N-NW 347 3 min 0,6 UV-I 168 W/m 3,2 C 4,9 C 8,0 km/h (2 Bft)
24.05.2023 07:30 5,2 C 5,0 C 88 % 1024,3 hPa 0,0 l/m 5,7 km/h (1 Bft) N 355 3 min 0,7 UV-I 176 W/m 3,4 C 5,2 C 11,3 km/h (2 Bft)
24.05.2023 07:33 5,4 C 5,0 C 87 % 1024,3 hPa 0,0 l/m 6,0 km/h (2 Bft) N 355 3 min 0,7 UV-I 185 W/m 3,4 C 5,4 C 12,9 km/h (3 Bft)
24.05.2023 07:36 5,7 C 5,6 C 87 % 1024,3 hPa 0,0 l/m 7,1 km/h (2 Bft) N 360 3 min 0,7 UV-I 192 W/m 3,7 C 5,1 C 12,9 km/h (3 Bft)
24.05.2023 07:39 5,7 C 5,6 C 86 % 1024,3 hPa 0,0 l/m 7,8 km/h (2 Bft) N-NO 16 3 min 0,8 UV-I 200 W/m 3,5 C 4,5 C 14,5 km/h (3 Bft)
24.05.2023 07:42 5,9 C 5,6 C 85 % 1024,3 hPa 0,0 l/m 8,7 km/h (2 Bft) N 351 3 min 0,8 UV-I 209 W/m 3,6 C 4,0 C 16,1 km/h (3 Bft)
24.05.2023 07:45 6,1 C 5,6 C 85 % 1024,3 hPa 0,0 l/m 7,5 km/h (2 Bft) N-NO 19 3 min 0,8 UV-I 217 W/m 3,8 C 5,2 C 14,5 km/h (3 Bft)
24.05.2023 07:48 6,3 C 5,6 C 85 % 1024,3 hPa 0,0 l/m 9,0 km/h (2 Bft) N-NW 331 3 min 0,9 UV-I 225 W/m 4,0 C 4,2 C 14,5 km/h (3 Bft)
24.05.2023 07:51 6,4 C 6,1 C 84 % 1024,4 hPa 0,0 l/m 9,5 km/h (2 Bft) N 360 3 min 0,9 UV-I 232 W/m 3,9 C 4,0 C 17,7 km/h (3 Bft)
24.05.2023 07:54 6,5 C 6,7 C 84 % 1024,4 hPa 0,0 l/m 8,8 km/h (2 Bft) N-NO 17 3 min 1,0 UV-I 240 W/m 4,0 C 4,6 C 14,5 km/h (3 Bft)
24.05.2023 07:57 6,6 C 7,2 C 83 % 1024,4 hPa 0,0 l/m 11,1 km/h (2 Bft) N 350 3 min 1,0 UV-I 248 W/m 3,9 C 3,1 C 16,1 km/h (3 Bft)
24.05.2023 08:00 6,7 C 8,3 C 83 % 1024,2 hPa 0,0 l/m 10,4 km/h (2 Bft) N-NW 342 3 min 1,0 UV-I 257 W/m 4,0 C 3,7 C 17,7 km/h (3 Bft)
24.05.2023 08:03 6,8 C 8,9 C 82 % 1024,3 hPa 0,0 l/m 15,4 km/h (3 Bft) N-NW 346 3 min 1,1 UV-I 266 W/m 3,9 C 1,1 C 22,5 km/h (4 Bft)
24.05.2023 08:06 6,7 C 8,9 C 81 % 1024,4 hPa 0,0 l/m 15,6 km/h (3 Bft) N-NW 336 3 min 1,1 UV-I 274 W/m 3,7 C 0,9 C 19,3 km/h (3 Bft)
24.05.2023 08:09 6,8 C 8,9 C 82 % 1024,4 hPa 0,0 l/m 12,3 km/h (3 Bft) N-NW 346 3 min 1,1 UV-I 283 W/m 3,9 C 2,7 C 17,7 km/h (3 Bft)
24.05.2023 08:12 6,9 C 8,9 C 82 % 1024,4 hPa 0,0 l/m 11,9 km/h (2 Bft) N-NW 346 3 min 1,2 UV-I 290 W/m 4,0 C 3,0 C 19,3 km/h (3 Bft)
24.05.2023 08:15 7,2 C 8,9 C 82 % 1024,5 hPa 0,0 l/m 10,4 km/h (2 Bft) N 5 3 min 1,2 UV-I 297 W/m 4,3 C 4,2 C 17,7 km/h (3 Bft)
24.05.2023 08:18 7,2 C 8,9 C 81 % 1024,5 hPa 0,0 l/m 11,3 km/h (2 Bft) N-NO 23 3 min 1,3 UV-I 305 W/m 4,2 C 3,7 C 19,3 km/h (3 Bft)
24.05.2023 08:21 7,3 C 8,9 C 81 % 1024,4 hPa 0,0 l/m 10,0 km/h (2 Bft) N-NO 22 3 min 1,3 UV-I 313 W/m 4,3 C 4,6 C 14,5 km/h (3 Bft)
24.05.2023 08:24 7,3 C 8,9 C 80 % 1024,5 hPa 0,0 l/m 14,1 km/h (3 Bft) N-NO 12 3 min 1,3 UV-I 295 W/m 4,1 C 2,3 C 17,7 km/h (3 Bft)
24.05.2023 08:27 7,4 C 9,4 C 81 % 1024,7 hPa 0,0 l/m 10,9 km/h (2 Bft) N 5 3 min 1,4 UV-I 331 W/m 4,4 C 4,2 C 17,7 km/h (3 Bft)
24.05.2023 08:30 7,7 C 9,4 C 81 % 1024,7 hPa 0,0 l/m 11,8 km/h (2 Bft) N 355 3 min 1,4 UV-I 342 W/m 4,7 C 4,0 C 19,3 km/h (3 Bft)
24.05.2023 08:33 7,6 C 10,0 C 79 % 1024,7 hPa 0,0 l/m 14,4 km/h (3 Bft) N-NO 20 3 min 1,5 UV-I 352 W/m 4,2 C 2,5 C 24,1 km/h (4 Bft)
24.05.2023 08:36 7,4 C 9,4 C 78 % 1024,7 hPa 0,0 l/m 15,7 km/h (3 Bft) N-NO 24 3 min 1,3 UV-I 249 W/m 3,8 C 1,7 C 22,5 km/h (4 Bft)
24.05.2023 08:39 7,3 C 10,0 C 79 % 1024,8 hPa 0,0 l/m 13,7 km/h (3 Bft) N 350 3 min 1,5 UV-I 331 W/m 3,9 C 2,5 C 22,5 km/h (4 Bft)
24.05.2023 08:42 7,3 C 9,4 C 80 % 1024,8 hPa 0,0 l/m 10,3 km/h (2 Bft) N 5 0 min 1,4 UV-I 134 W/m 4,1 C 4,4 C 16,1 km/h (3 Bft)
24.05.2023 08:45 7,4 C 10,0 C 80 % 1024,8 hPa 0,0 l/m 10,1 km/h (2 Bft) N 355 0 min 1,4 UV-I 131 W/m 4,2 C 4,7 C 16,1 km/h (3 Bft)
24.05.2023 08:48 7,2 C 9,4 C 79 % 1024,8 hPa 0,0 l/m 13,1 km/h (3 Bft) N-NO 16 0 min 1,3 UV-I 158 W/m 3,8 C 2,7 C 20,9 km/h (4 Bft)
24.05.2023 08:51 7,3 C 9,4 C 80 % 1024,9 hPa 0,0 l/m 12,3 km/h (3 Bft) N-NW 329 0 min 1,6 UV-I 250 W/m 4,1 C 3,2 C 20,9 km/h (4 Bft)
24.05.2023 08:54 7,6 C 11,1 C 79 % 1024,8 hPa 0,0 l/m 12,8 km/h (3 Bft) N 351 3 min 1,8 UV-I 497 W/m 4,2 C 3,3 C 20,9 km/h (4 Bft)
24.05.2023 08:57 7,6 C 11,1 C 78 % 1025,0 hPa 0,0 l/m 14,9 km/h (3 Bft) N 360 3 min 1,4 UV-I 361 W/m 4,0 C 2,3 C 20,9 km/h (4 Bft)
24.05.2023 09:00 7,4 C 11,1 C 78 % 1025,0 hPa 0,0 l/m 15,4 km/h (3 Bft) N-NW 342 3 min 1,5 UV-I 354 W/m 3,8 C 1,8 C 24,1 km/h (4 Bft)
24.05.2023 09:03 7,7 C 11,7 C 77 % 1025,1 hPa 0,0 l/m 17,7 km/h (3 Bft) N-NW 339 3 min 1,8 UV-I 513 W/m 3,9 C 1,2 C 24,1 km/h (4 Bft)
24.05.2023 09:06 7,7 C 12,2 C 77 % 1025,1 hPa 0,0 l/m 18,8 km/h (3 Bft) N 355 3 min 1,9 UV-I 465 W/m 3,9 C 0,8 C 24,1 km/h (4 Bft)
24.05.2023 09:09 7,9 C 12,2 C 77 % 1025,1 hPa 0,0 l/m 13,8 km/h (3 Bft) N 360 3 min 1,9 UV-I 408 W/m 4,1 C 3,2 C 22,5 km/h (4 Bft)
24.05.2023 09:12 8,2 C 12,2 C 76 % 1025,1 hPa 0,0 l/m 16,9 km/h (3 Bft) N 5 3 min 2,1 UV-I 506 W/m 4,2 C 2,1 C 27,4 km/h (4 Bft)
24.05.2023 09:15 8,3 C 12,2 C 74 % 1025,1 hPa 0,0 l/m 16,0 km/h (3 Bft) N 355 3 min 2,1 UV-I 483 W/m 3,9 C 2,6 C 25,7 km/h (4 Bft)
24.05.2023 09:18 8,3 C 11,7 C 73 % 1025,1 hPa 0,0 l/m 18,4 km/h (3 Bft) N-NW 348 3 min 2,2 UV-I 477 W/m 3,8 C 1,7 C 27,4 km/h (4 Bft)
24.05.2023 09:21 8,3 C 12,2 C 73 % 1024,9 hPa 0,0 l/m 14,2 km/h (3 Bft) N 355 3 min 2,2 UV-I 486 W/m 3,8 C 3,4 C 20,9 km/h (4 Bft)
24.05.2023 09:24 8,3 C 12,2 C 73 % 1024,9 hPa 0,0 l/m 13,5 km/h (3 Bft) N-NW 346 3 min 2,2 UV-I 480 W/m 3,8 C 3,8 C 20,9 km/h (4 Bft)
24.05.2023 09:27 8,3 C 12,2 C 73 % 1024,8 hPa 0,0 l/m 13,7 km/h (3 Bft) N-NW 343 3 min 2,3 UV-I 482 W/m 3,8 C 3,7 C 19,3 km/h (3 Bft)
24.05.2023 09:30 8,4 C 12,8 C 73 % 1024,9 hPa 0,0 l/m 12,5 km/h (3 Bft) N-NO 24 3 min 2,3 UV-I 485 W/m 3,8 C 4,4 C 17,7 km/h (3 Bft)
24.05.2023 09:33 8,8 C 12,8 C 75 % 1024,8 hPa 0,0 l/m 7,1 km/h (2 Bft) N-NW 342 3 min 2,4 UV-I 477 W/m 4,6 C 8,3 C 16,1 km/h (3 Bft)
24.05.2023 09:36 9,0 C 12,8 C 72 % 1024,9 hPa 0,0 l/m 11,4 km/h (2 Bft) N-NO 15 3 min 2,4 UV-I 473 W/m 4,2 C 5,7 C 17,7 km/h (3 Bft)
24.05.2023 09:39 9,1 C 12,8 C 72 % 1024,8 hPa 0,0 l/m 10,5 km/h (2 Bft) N 11 3 min 2,5 UV-I 471 W/m 4,3 C 6,3 C 17,7 km/h (3 Bft)
24.05.2023 09:42 8,9 C 12,2 C 71 % 1024,8 hPa 0,0 l/m 11,5 km/h (2 Bft) N-NO 32 3 min 2,5 UV-I 468 W/m 3,9 C 5,5 C 16,1 km/h (3 Bft)
24.05.2023 09:45 8,9 C 11,7 C 71 % 1024,8 hPa 0,0 l/m 11,9 km/h (2 Bft) N 351 3 min 2,6 UV-I 463 W/m 3,9 C 5,3 C 17,7 km/h (3 Bft)
24.05.2023 09:48 8,8 C 11,1 C 73 % 1024,9 hPa 0,0 l/m 8,4 km/h (2 Bft) N-NO 19 3 min 2,6 UV-I 459 W/m 4,2 C 7,3 C 12,9 km/h (3 Bft)
24.05.2023 09:51 8,8 C 11,7 C 72 % 1025,0 hPa 0,0 l/m 8,0 km/h (2 Bft) N-NO 12 3 min 2,6 UV-I 455 W/m 4,0 C 7,6 C 16,1 km/h (3 Bft)
24.05.2023 09:54 8,9 C 12,2 C 73 % 1025,1 hPa 0,0 l/m 8,0 km/h (2 Bft) N-NW 340 3 min 2,7 UV-I 447 W/m 4,3 C 7,7 C 19,3 km/h (3 Bft)
24.05.2023 09:57 9,1 C 12,8 C 68 % 1025,0 hPa 0,0 l/m 15,2 km/h (3 Bft) N-NW 348 3 min 2,6 UV-I 427 W/m 3,5 C 4,0 C 27,4 km/h (4 Bft)
24.05.2023 10:00 9,2 C 12,8 C 70 % 1025,1 hPa 0,0 l/m 12,7 km/h (3 Bft) NW 317 3 min 2,8 UV-I 450 W/m 4,0 C 5,2 C 22,5 km/h (4 Bft)
24.05.2023 10:03 9,4 C 12,8 C 69 % 1025,0 hPa 0,0 l/m 11,7 km/h (2 Bft) N-NW 336 3 min 2,9 UV-I 455 W/m 4,0 C 6,0 C 17,7 km/h (3 Bft)
24.05.2023 10:06 9,6 C 12,8 C 70 % 1025,0 hPa 0,0 l/m 13,6 km/h (3 Bft) N 10 3 min 3,0 UV-I 467 W/m 4,4 C 5,3 C 19,3 km/h (3 Bft)
24.05.2023 10:09 9,8 C 13,3 C 68 % 1025,0 hPa 0,0 l/m 13,0 km/h (3 Bft) N-NO 19 3 min 3,0 UV-I 481 W/m 4,2 C 5,8 C 17,7 km/h (3 Bft)
24.05.2023 10:12 9,9 C 13,3 C 69 % 1025,1 hPa 0,0 l/m 10,7 km/h (2 Bft) N 11 3 min 3,1 UV-I 491 W/m 4,5 C 7,1 C 19,3 km/h (3 Bft)
24.05.2023 10:15 9,9 C 13,9 C 69 % 1025,1 hPa 0,0 l/m 15,4 km/h (3 Bft) N 355 3 min 3,1 UV-I 509 W/m 4,5 C 4,8 C 25,7 km/h (4 Bft)
24.05.2023 10:18 9,8 C 13,9 C 65 % 1025,1 hPa 0,0 l/m 19,0 km/h (3 Bft) N 5 3 min 3,1 UV-I 523 W/m 3,5 C 3,4 C 33,8 km/h (5 Bft)
24.05.2023 10:21 9,9 C 13,9 C 66 % 1025,1 hPa 0,0 l/m 13,2 km/h (3 Bft) NW 315 3 min 3,2 UV-I 546 W/m 3,9 C 5,8 C 22,5 km/h (4 Bft)
24.05.2023 10:24 10,1 C 13,9 C 68 % 1024,9 hPa 0,0 l/m 12,4 km/h (3 Bft) N-NO 16 3 min 3,2 UV-I 559 W/m 4,5 C 6,4 C 17,7 km/h (3 Bft)
24.05.2023 10:27 10,2 C 13,9 C 68 % 1025,1 hPa 0,0 l/m 11,8 km/h (2 Bft) N-NW 342 3 min 3,3 UV-I 580 W/m 4,6 C 6,8 C 20,9 km/h (4 Bft)
24.05.2023 10:30 10,5 C 14,4 C 67 % 1025,1 hPa 0,0 l/m 13,7 km/h (3 Bft) NO 34 3 min 3,4 UV-I 604 W/m 4,6 C 6,3 C 22,5 km/h (4 Bft)
24.05.2023 10:33 10,6 C 14,4 C 67 % 1025,1 hPa 0,0 l/m 11,4 km/h (2 Bft) N 11 3 min 3,4 UV-I 618 W/m 4,7 C 7,5 C 20,9 km/h (4 Bft)
24.05.2023 10:36 10,4 C 14,4 C 67 % 1025,1 hPa 0,0 l/m 16,6 km/h (3 Bft) N-NO 19 3 min 3,4 UV-I 627 W/m 4,5 C 5,0 C 25,7 km/h (4 Bft)
24.05.2023 10:39 10,6 C 15,0 C 68 % 1025,1 hPa 0,0 l/m 17,0 km/h (3 Bft) N-NO 27 3 min 3,6 UV-I 644 W/m 4,9 C 5,1 C 24,1 km/h (4 Bft)
24.05.2023 10:42 10,4 C 15,0 C 67 % 1025,2 hPa 0,0 l/m 18,2 km/h (3 Bft) N-NW 343 3 min 3,6 UV-I 657 W/m 4,5 C 4,4 C 27,4 km/h (4 Bft)
24.05.2023 10:45 10,3 C 15,6 C 67 % 1025,2 hPa 0,0 l/m 12,2 km/h (2 Bft) N 10 3 min 3,7 UV-I 686 W/m 4,4 C 6,8 C 20,9 km/h (4 Bft)
24.05.2023 10:48 10,4 C 16,1 C 68 % 1025,1 hPa 0,0 l/m 15,8 km/h (3 Bft) N-NO 27 3 min 3,7 UV-I 679 W/m 4,8 C 5,3 C 24,1 km/h (4 Bft)
24.05.2023 10:51 10,7 C 16,1 C 69 % 1025,2 hPa 0,0 l/m 13,8 km/h (3 Bft) N 9 3 min 3,7 UV-I 666 W/m 5,2 C 6,5 C 19,3 km/h (3 Bft)
24.05.2023 10:54 10,8 C 16,7 C 67 % 1025,2 hPa 0,0 l/m 9,7 km/h (2 Bft) N 5 3 min 3,8 UV-I 666 W/m 4,9 C 8,6 C 17,7 km/h (3 Bft)
24.05.2023 10:57 10,8 C 17,8 C 66 % 1025,2 hPa 0,0 l/m 12,0 km/h (2 Bft) N 355 3 min 3,9 UV-I 683 W/m 4,7 C 7,4 C 19,3 km/h (3 Bft)
24.05.2023 11:00 10,7 C 17,8 C 67 % 1025,2 hPa 0,0 l/m 15,6 km/h (3 Bft) NO 36 3 min 4,0 UV-I 696 W/m 4,8 C 5,7 C 20,9 km/h (4 Bft)
24.05.2023 11:03 10,7 C 17,2 C 67 % 1025,1 hPa 0,0 l/m 15,1 km/h (3 Bft) N-NO 17 3 min 4,0 UV-I 694 W/m 4,8 C 5,9 C 24,1 km/h (4 Bft)
24.05.2023 11:06 10,9 C 17,8 C 67 % 1025,1 hPa 0,0 l/m 15,2 km/h (3 Bft) N-NW 340 3 min 4,0 UV-I 698 W/m 5,0 C 6,1 C 20,9 km/h (4 Bft)
24.05.2023 11:09 11,0 C 18,3 C 67 % 1025,0 hPa 0,0 l/m 12,9 km/h (3 Bft) N-NO 19 3 min 4,1 UV-I 705 W/m 5,1 C 7,2 C 17,7 km/h (3 Bft)
24.05.2023 11:12 11,2 C 18,3 C 67 % 1025,1 hPa 0,0 l/m 14,1 km/h (3 Bft) N 5 3 min 4,2 UV-I 711 W/m 5,3 C 7,0 C 24,1 km/h (4 Bft)
24.05.2023 11:15 11,1 C 18,9 C 67 % 1025,0 hPa 0,0 l/m 16,3 km/h (3 Bft) N-NW 337 3 min 4,2 UV-I 726 W/m 5,2 C 6,0 C 24,1 km/h (4 Bft)
24.05.2023 11:18 11,1 C 19,4 C 65 % 1025,0 hPa 0,0 l/m 13,7 km/h (3 Bft) N-NO 24 3 min 4,2 UV-I 718 W/m 4,8 C 7,0 C 20,9 km/h (4 Bft)
24.05.2023 11:21 11,2 C 20,0 C 68 % 1025,0 hPa 0,0 l/m 10,9 km/h (2 Bft) N-NO 19 3 min 4,3 UV-I 733 W/m 5,5 C 8,4 C 19,3 km/h (3 Bft)
24.05.2023 11:24 11,3 C 20,0 C 66 % 1024,9 hPa 0,0 l/m 14,5 km/h (3 Bft) N 360 3 min 4,4 UV-I 741 W/m 5,2 C 6,9 C 22,5 km/h (4 Bft)
24.05.2023 11:27 11,4 C 20,6 C 65 % 1025,0 hPa 0,0 l/m 14,1 km/h (3 Bft) N-NW 340 3 min 4,5 UV-I 744 W/m 5,1 C 7,2 C 25,7 km/h (4 Bft)
24.05.2023 11:30 11,5 C 20,6 C 66 % 1025,0 hPa 0,0 l/m 12,4 km/h (3 Bft) N-NO 17 3 min 4,6 UV-I 771 W/m 5,4 C 8,1 C 17,7 km/h (3 Bft)
24.05.2023 11:33 11,6 C 20,6 C 66 % 1025,1 hPa 0,0 l/m 10,3 km/h (2 Bft) N 355 3 min 4,6 UV-I 768 W/m 5,5 C 9,2 C 20,9 km/h (4 Bft)
24.05.2023 11:36 11,3 C 21,1 C 64 % 1025,2 hPa 0,0 l/m 18,3 km/h (3 Bft) N-NW 345 3 min 4,7 UV-I 771 W/m 4,7 C 5,5 C 24,1 km/h (4 Bft)
24.05.2023 11:39 11,2 C 19,4 C 66 % 1025,0 hPa 0,0 l/m 14,8 km/h (3 Bft) N 350 3 min 4,4 UV-I 776 W/m 5,1 C 6,7 C 22,5 km/h (4 Bft)
24.05.2023 11:42 11,2 C 20,0 C 64 % 1025,1 hPa 0,0 l/m 19,0 km/h (3 Bft) N-NW 336 3 min 4,8 UV-I 794 W/m 4,6 C 5,2 C 29,0 km/h (5 Bft)
24.05.2023 11:45 11,3 C 20,0 C 67 % 1025,0 hPa 0,0 l/m 13,2 km/h (3 Bft) N-NO 19 3 min 5,0 UV-I 836 W/m 5,4 C 7,5 C 22,5 km/h (4 Bft)
24.05.2023 11:48 11,7 C 20,0 C 65 % 1025,0 hPa 0,0 l/m 17,3 km/h (3 Bft) N-NO 22 3 min 5,1 UV-I 879 W/m 5,3 C 6,4 C 30,6 km/h (5 Bft)
24.05.2023 11:51 11,8 C 20,0 C 66 % 1025,1 hPa 0,0 l/m 16,9 km/h (3 Bft) N-NW 328 3 min 5,1 UV-I 898 W/m 5,7 C 6,6 C 25,7 km/h (4 Bft)
24.05.2023 11:54 11,6 C 20,6 C 65 % 1025,1 hPa 0,0 l/m 16,5 km/h (3 Bft) N-NW 328 3 min 5,2 UV-I 905 W/m 5,2 C 6,5 C 29,0 km/h (5 Bft)
24.05.2023 11:57 11,7 C 20,0 C 67 % 1025,0 hPa 0,0 l/m 15,8 km/h (3 Bft) N-NO 15 3 min 4,6 UV-I 949 W/m 5,8 C 6,9 C 20,9 km/h (4 Bft)
24.05.2023 12:00 11,8 C 21,7 C 65 % 1025,1 hPa 0,0 l/m 11,2 km/h (2 Bft) N 350 3 min 4,9 UV-I 983 W/m 5,4 C 9,0 C 17,7 km/h (3 Bft)
24.05.2023 12:03 11,7 C 19,4 C 68 % 1025,0 hPa 0,0 l/m 10,1 km/h (2 Bft) N 355 0 min 3,9 UV-I 375 W/m 6,0 C 9,4 C 19,3 km/h (3 Bft)
24.05.2023 12:06 11,6 C 18,9 C 66 % 1025,0 hPa 0,0 l/m 17,3 km/h (3 Bft) N-NO 15 3 min 3,4 UV-I 706 W/m 5,5 C 6,2 C 24,1 km/h (4 Bft)
24.05.2023 12:09 11,6 C 20,6 C 68 % 1025,1 hPa 0,0 l/m 12,6 km/h (3 Bft) N 360 3 min 5,4 UV-I 571 W/m 5,9 C 8,1 C 24,1 km/h (4 Bft)
24.05.2023 12:12 11,9 C 21,7 C 65 % 1025,1 hPa 0,0 l/m 14,5 km/h (3 Bft) N 360 3 min 5,2 UV-I 860 W/m 5,5 C 7,6 C 20,9 km/h (4 Bft)
24.05.2023 12:15 11,7 C 22,2 C 64 % 1025,0 hPa 0,0 l/m 15,1 km/h (3 Bft) N-NW 343 3 min 5,5 UV-I 897 W/m 5,1 C 7,2 C 25,7 km/h (4 Bft)
24.05.2023 12:18 11,3 C 21,7 C 65 % 1025,0 hPa 0,0 l/m 11,3 km/h (2 Bft) N-NO 15 3 min 5,6 UV-I 916 W/m 5,0 C 8,4 C 17,7 km/h (3 Bft)
24.05.2023 12:21 11,8 C 21,7 C 69 % 1025,0 hPa 0,0 l/m 13,4 km/h (3 Bft) N-NO 20 3 min 5,6 UV-I 921 W/m 6,3 C 8,0 C 19,3 km/h (3 Bft)
24.05.2023 12:24 11,8 C 21,7 C 67 % 1024,9 hPa 0,0 l/m 11,2 km/h (2 Bft) N-NO 12 3 min 5,5 UV-I 891 W/m 5,9 C 9,0 C 17,7 km/h (3 Bft)
24.05.2023 12:27 11,7 C 22,2 C 64 % 1025,0 hPa 0,0 l/m 12,8 km/h (3 Bft) NW 313 3 min 5,6 UV-I 903 W/m 5,1 C 8,1 C 19,3 km/h (3 Bft)
24.05.2023 12:30 11,9 C 22,2 C 67 % 1024,9 hPa 0,0 l/m 17,1 km/h (3 Bft) N-NO 15 3 min 5,6 UV-I 914 W/m 6,0 C 6,7 C 25,7 km/h (4 Bft)
24.05.2023 12:33 11,7 C 21,7 C 66 % 1024,8 hPa 0,0 l/m 12,7 km/h (3 Bft) NO 34 3 min 5,7 UV-I 935 W/m 5,6 C 8,2 C 22,5 km/h (4 Bft)
24.05.2023 12:36 12,2 C 22,2 C 69 % 1024,8 hPa 0,0 l/m 12,9 km/h (3 Bft) N 9 3 min 5,9 UV-I 969 W/m 6,7 C 8,6 C 19,3 km/h (3 Bft)
24.05.2023 12:39 12,0 C 22,8 C 66 % 1024,9 hPa 0,0 l/m 12,8 km/h (3 Bft) N 5 3 min 5,6 UV-I 1040 W/m 5,8 C 8,5 C 20,9 km/h (4 Bft)
24.05.2023 12:42 12,1 C 21,7 C 67 % 1024,9 hPa 0,0 l/m 12,0 km/h (2 Bft) N-NO 27 3 min 5,4 UV-I 1005 W/m 6,2 C 8,9 C 20,9 km/h (4 Bft)
24.05.2023 12:45 11,9 C 20,0 C 67 % 1024,8 hPa 0,0 l/m 16,1 km/h (3 Bft) N-NO 12 3 min 4,5 UV-I 615 W/m 6,0 C 7,0 C 27,4 km/h (4 Bft)
24.05.2023 12:48 11,8 C 18,9 C 67 % 1025,0 hPa 0,0 l/m 15,8 km/h (3 Bft) N-NO 17 3 min 3,6 UV-I 477 W/m 5,9 C 7,0 C 22,5 km/h (4 Bft)
24.05.2023 12:51 11,9 C 21,1 C 68 % 1025,0 hPa 0,0 l/m 15,8 km/h (3 Bft) N-NO 14 3 min 5,6 UV-I 478 W/m 6,2 C 7,1 C 24,1 km/h (4 Bft)
24.05.2023 12:54 11,6 C 19,4 C 66 % 1024,9 hPa 0,0 l/m 13,2 km/h (3 Bft) NO 36 0 min 3,1 UV-I 426 W/m 5,5 C 7,8 C 20,9 km/h (4 Bft)
24.05.2023 12:57 11,3 C 17,2 C 68 % 1024,9 hPa 0,0 l/m 15,1 km/h (3 Bft) N-NW 345 0 min 2,6 UV-I 381 W/m 5,6 C 6,7 C 27,4 km/h (4 Bft)
24.05.2023 13:00 10,8 C 16,7 C 67 % 1025,1 hPa 0,0 l/m 20,7 km/h (4 Bft) N-NW 348 0 min 2,8 UV-I 379 W/m 4,9 C 4,1 C 27,4 km/h (4 Bft)
24.05.2023 13:03 10,9 C 17,8 C 68 % 1025,1 hPa 0,0 l/m 15,6 km/h (3 Bft) N 360 0 min 3,5 UV-I 409 W/m 5,2 C 6,0 C 24,1 km/h (4 Bft)
24.05.2023 13:06 10,8 C 16,7 C 69 % 1025,1 hPa 0,0 l/m 17,2 km/h (3 Bft) N-NO 22 0 min 2,8 UV-I 410 W/m 5,3 C 5,3 C 24,1 km/h (4 Bft)
24.05.2023 13:09 11,1 C 18,3 C 69 % 1025,2 hPa 0,0 l/m 15,0 km/h (3 Bft) N 355 3 min 4,0 UV-I 489 W/m 5,6 C 6,5 C 24,1 km/h (4 Bft)
24.05.2023 13:12 10,8 C 17,8 C 68 % 1025,0 hPa 0,0 l/m 16,7 km/h (3 Bft) N 5 0 min 2,9 UV-I 421 W/m 5,1 C 5,4 C 20,9 km/h (4 Bft)
24.05.2023 13:15 10,8 C 17,8 C 70 % 1025,1 hPa 0,0 l/m 14,3 km/h (3 Bft) N 360 0 min 3,2 UV-I 464 W/m 5,6 C 6,4 C 22,5 km/h (4 Bft)
24.05.2023 13:18 10,8 C 17,8 C 68 % 1025,1 hPa 0,0 l/m 11,2 km/h (2 Bft) N-NW 331 3 min 3,4 UV-I 504 W/m 5,1 C 7,8 C 17,7 km/h (3 Bft)
24.05.2023 13:21 10,9 C 16,7 C 70 % 1025,0 hPa 0,0 l/m 6,4 km/h (2 Bft) N-NO 17 0 min 2,6 UV-I 402 W/m 5,6 C 10,9 C 14,5 km/h (3 Bft)
24.05.2023 13:24 10,8 C 17,2 C 70 % 1025,0 hPa 0,0 l/m 7,2 km/h (2 Bft) NW 325 0 min 2,9 UV-I 387 W/m 5,6 C 10,2 C 12,9 km/h (3 Bft)
24.05.2023 13:27 10,7 C 16,1 C 70 % 1025,0 hPa 0,0 l/m 11,5 km/h (2 Bft) N 9 0 min 2,6 UV-I 383 W/m 5,5 C 7,6 C 20,9 km/h (4 Bft)
24.05.2023 13:30 10,8 C 16,1 C 70 % 1025,1 hPa 0,0 l/m 12,5 km/h (3 Bft) N 11 0 min 3,4 UV-I 454 W/m 5,6 C 7,2 C 19,3 km/h (3 Bft)
24.05.2023 13:33 11,1 C 17,8 C 71 % 1025,2 hPa 0,0 l/m 14,6 km/h (3 Bft) N 355 3 min 3,9 UV-I 495 W/m 6,0 C 6,6 C 20,9 km/h (4 Bft)
24.05.2023 13:36 10,8 C 16,7 C 69 % 1025,2 hPa 0,0 l/m 14,3 km/h (3 Bft) N 360 0 min 2,3 UV-I 350 W/m 5,3 C 6,4 C 24,1 km/h (4 Bft)
24.05.2023 13:39 10,2 C 15,6 C 70 % 1025,0 hPa 0,0 l/m 14,8 km/h (3 Bft) N-NO 17 0 min 2,1 UV-I 319 W/m 5,0 C 5,5 C 22,5 km/h (4 Bft)
24.05.2023 13:42 10,1 C 14,4 C 71 % 1025,2 hPa 0,0 l/m 14,1 km/h (3 Bft) N 355 0 min 1,7 UV-I 252 W/m 5,1 C 5,6 C 20,9 km/h (4 Bft)
24.05.2023 13:45 9,8 C 13,9 C 70 % 1025,2 hPa 0,0 l/m 16,0 km/h (3 Bft) N-NO 15 0 min 1,6 UV-I 238 W/m 4,6 C 4,5 C 22,5 km/h (4 Bft)
24.05.2023 13:48 9,7 C 13,3 C 72 % 1025,2 hPa 0,0 l/m 14,3 km/h (3 Bft) N 5 0 min 2,0 UV-I 292 W/m 4,9 C 5,1 C 19,3 km/h (3 Bft)
24.05.2023 13:51 10,1 C 14,4 C 74 % 1025,2 hPa 0,0 l/m 10,0 km/h (2 Bft) N-NW 348 0 min 2,8 UV-I 422 W/m 5,7 C 7,7 C 17,7 km/h (3 Bft)
24.05.2023 13:54 10,4 C 15,0 C 72 % 1025,2 hPa 0,0 l/m 10,9 km/h (2 Bft) N-NW 346 3 min 3,2 UV-I 471 W/m 5,6 C 7,5 C 16,1 km/h (3 Bft)
24.05.2023 13:57 10,5 C 16,1 C 72 % 1025,0 hPa 0,0 l/m 10,1 km/h (2 Bft) N-NW 336 3 min 3,7 UV-I 493 W/m 5,7 C 8,1 C 19,3 km/h (3 Bft)
24.05.2023 14:00 10,7 C 16,7 C 71 % 1025,0 hPa 0,0 l/m 12,1 km/h (2 Bft) N 360 3 min 3,4 UV-I 526 W/m 5,7 C 7,3 C 17,7 km/h (3 Bft)
24.05.2023 14:03 10,7 C 17,2 C 72 % 1024,9 hPa 0,0 l/m 8,9 km/h (2 Bft) N-NO 21 0 min 3,0 UV-I 453 W/m 5,9 C 9,0 C 14,5 km/h (3 Bft)
24.05.2023 14:06 10,7 C 16,7 C 71 % 1024,9 hPa 0,0 l/m 14,0 km/h (3 Bft) N 355 0 min 2,6 UV-I 381 W/m 5,7 C 6,4 C 22,5 km/h (4 Bft)
24.05.2023 14:09 10,4 C 15,6 C 71 % 1024,9 hPa 0,0 l/m 10,8 km/h (2 Bft) N-NO 22 0 min 2,3 UV-I 340 W/m 5,4 C 7,6 C 16,1 km/h (3 Bft)
24.05.2023 14:12 10,4 C 15,0 C 71 % 1024,9 hPa 0,0 l/m 10,7 km/h (2 Bft) N-NO 12 0 min 2,2 UV-I 321 W/m 5,4 C 7,6 C 19,3 km/h (3 Bft)
24.05.2023 14:15 10,3 C 14,4 C 71 % 1025,0 hPa 0,0 l/m 15,0 km/h (3 Bft) N-NO 14 0 min 2,5 UV-I 369 W/m 5,3 C 5,5 C 24,1 km/h (4 Bft)
24.05.2023 14:18 10,4 C 15,6 C 72 % 1024,9 hPa 0,0 l/m 14,1 km/h (3 Bft) N 5 0 min 2,4 UV-I 367 W/m 5,6 C 6,0 C 20,9 km/h (4 Bft)
24.05.2023 14:21 10,4 C 15,6 C 71 % 1024,9 hPa 0,0 l/m 12,4 km/h (3 Bft) N 5 0 min 2,3 UV-I 344 W/m 5,4 C 6,8 C 17,7 km/h (3 Bft)
24.05.2023 14:24 10,4 C 15,6 C 72 % 1024,9 hPa 0,0 l/m 11,5 km/h (2 Bft) N 5 0 min 2,8 UV-I 402 W/m 5,6 C 7,2 C 19,3 km/h (3 Bft)
24.05.2023 14:27 10,4 C 16,1 C 71 % 1024,9 hPa 0,0 l/m 13,1 km/h (3 Bft) N 355 0 min 3,0 UV-I 440 W/m 5,4 C 6,4 C 19,3 km/h (3 Bft)
24.05.2023 14:30 10,7 C 16,1 C 72 % 1024,9 hPa 0,0 l/m 11,9 km/h (2 Bft) N-NO 13 0 min 3,4 UV-I 417 W/m 5,9 C 7,4 C 19,3 km/h (3 Bft)
24.05.2023 14:33 10,7 C 16,7 C 70 % 1024,9 hPa 0,0 l/m 11,1 km/h (2 Bft) N-NW 339 0 min 2,4 UV-I 390 W/m 5,5 C 7,8 C 17,7 km/h (3 Bft)
24.05.2023 14:36 10,4 C 15,0 C 70 % 1024,9 hPa 0,0 l/m 12,2 km/h (2 Bft) N-NW 337 0 min 1,6 UV-I 262 W/m 5,2 C 6,9 C 20,9 km/h (4 Bft)
24.05.2023 14:39 10,3 C 13,9 C 72 % 1024,9 hPa 0,0 l/m 12,6 km/h (3 Bft) N-NO 24 0 min 1,6 UV-I 239 W/m 5,5 C 6,6 C 19,3 km/h (3 Bft)
24.05.2023 14:42 10,2 C 13,3 C 72 % 1025,0 hPa 0,0 l/m 13,8 km/h (3 Bft) N 11 0 min 1,5 UV-I 231 W/m 5,4 C 5,9 C 17,7 km/h (3 Bft)
24.05.2023 14:45 10,1 C 13,3 C 72 % 1024,9 hPa 0,0 l/m 10,8 km/h (2 Bft) N-NO 26 0 min 1,2 UV-I 188 W/m 5,3 C 7,3 C 16,1 km/h (3 Bft)
24.05.2023 14:48 9,9 C 12,8 C 73 % 1024,9 hPa 0,0 l/m 12,0 km/h (2 Bft) N 360 0 min 1,2 UV-I 179 W/m 5,3 C 6,4 C 17,7 km/h (3 Bft)
24.05.2023 14:51 9,8 C 12,2 C 73 % 1025,1 hPa 0,0 l/m 14,1 km/h (3 Bft) N-NW 344 0 min 0,9 UV-I 146 W/m 5,2 C 5,3 C 22,5 km/h (4 Bft)
24.05.2023 14:54 9,6 C 11,7 C 72 % 1025,0 hPa 0,0 l/m 15,7 km/h (3 Bft) N 355 0 min 0,8 UV-I 131 W/m 4,8 C 4,4 C 22,5 km/h (4 Bft)
24.05.2023 14:57 9,6 C 11,7 C 73 % 1025,0 hPa 0,0 l/m 14,6 km/h (3 Bft) N 360 0 min 1,2 UV-I 183 W/m 5,0 C 4,8 C 27,4 km/h (4 Bft)
24.05.2023 15:00 9,7 C 12,2 C 74 % 1025,0 hPa 0,0 l/m 13,5 km/h (3 Bft) N-NW 348 0 min 1,4 UV-I 217 W/m 5,3 C 5,4 C 20,9 km/h (4 Bft)
24.05.2023 15:03 9,7 C 12,2 C 74 % 1024,9 hPa 0,0 l/m 12,6 km/h (3 Bft) N 5 0 min 1,3 UV-I 195 W/m 5,3 C 5,9 C 19,3 km/h (3 Bft)
24.05.2023 15:06 9,8 C 12,8 C 75 % 1025,0 hPa 0,0 l/m 11,0 km/h (2 Bft) N-NW 346 0 min 1,6 UV-I 250 W/m 5,6 C 6,8 C 16,1 km/h (3 Bft)
24.05.2023 15:09 10,0 C 13,3 C 74 % 1025,0 hPa 0,0 l/m 12,4 km/h (3 Bft) N 9 0 min 2,0 UV-I 312 W/m 5,6 C 6,3 C 19,3 km/h (3 Bft)
24.05.2023 15:12 10,2 C 13,9 C 74 % 1025,0 hPa 0,0 l/m 7,0 km/h (2 Bft) N-NW 340 0 min 1,6 UV-I 242 W/m 5,8 C 9,8 C 14,5 km/h (3 Bft)
24.05.2023 15:15 10,1 C 13,3 C 72 % 1025,0 hPa 0,0 l/m 13,6 km/h (3 Bft) N 360 0 min 1,6 UV-I 258 W/m 5,3 C 5,9 C 19,3 km/h (3 Bft)
24.05.2023 15:18 10,1 C 14,4 C 74 % 1024,9 hPa 0,0 l/m 11,5 km/h (2 Bft) N 355 0 min 2,7 UV-I 393 W/m 5,7 C 6,9 C 20,9 km/h (4 Bft)
24.05.2023 15:21 10,3 C 16,1 C 73 % 1024,8 hPa 0,0 l/m 12,4 km/h (3 Bft) N-NW 340 0 min 3,2 UV-I 406 W/m 5,7 C 6,7 C 16,1 km/h (3 Bft)
24.05.2023 15:24 10,4 C 16,1 C 72 % 1024,8 hPa 0,0 l/m 12,7 km/h (3 Bft) N 349 0 min 3,1 UV-I 397 W/m 5,6 C 6,6 C 17,7 km/h (3 Bft)
24.05.2023 15:27 10,4 C 16,7 C 72 % 1024,8 hPa 0,0 l/m 7,9 km/h (2 Bft) N-NW 348 0 min 3,2 UV-I 396 W/m 5,6 C 9,3 C 17,7 km/h (3 Bft)
24.05.2023 15:30 10,6 C 17,8 C 73 % 1024,8 hPa 0,0 l/m 10,8 km/h (2 Bft) NO 35 0 min 3,3 UV-I 390 W/m 6,0 C 7,8 C 17,7 km/h (3 Bft)
24.05.2023 15:33 10,8 C 18,3 C 72 % 1024,7 hPa 0,0 l/m 10,3 km/h (2 Bft) NW 323 3 min 3,9 UV-I 475 W/m 6,0 C 8,3 C 19,3 km/h (3 Bft)
24.05.2023 15:36 11,3 C 20,6 C 70 % 1024,6 hPa 0,0 l/m 10,9 km/h (2 Bft) NW 313 3 min 5,0 UV-I 959 W/m 6,0 C 8,6 C 17,7 km/h (3 Bft)
24.05.2023 15:39 11,5 C 18,9 C 71 % 1024,5 hPa 0,0 l/m 6,5 km/h (2 Bft) N-NW 329 3 min 3,3 UV-I 675 W/m 6,4 C 11,5 C 12,9 km/h (3 Bft)
24.05.2023 15:42 11,4 C 16,7 C 70 % 1024,5 hPa 0,0 l/m 11,0 km/h (2 Bft) NW 326 0 min 2,4 UV-I 379 W/m 6,1 C 8,6 C 19,3 km/h (3 Bft)
24.05.2023 15:45 11,3 C 15,6 C 70 % 1024,4 hPa 0,0 l/m 9,4 km/h (2 Bft) N-NW 327 0 min 2,0 UV-I 320 W/m 6,0 C 9,4 C 17,7 km/h (3 Bft)
24.05.2023 15:48 11,0 C 14,4 C 69 % 1024,4 hPa 0,0 l/m 7,5 km/h (2 Bft) W-NW 297 0 min 1,4 UV-I 227 W/m 5,5 C 10,2 C 16,1 km/h (3 Bft)
24.05.2023 15:51 10,8 C 13,3 C 70 % 1024,4 hPa 0,0 l/m 10,0 km/h (2 Bft) N-NW 329 0 min 1,0 UV-I 170 W/m 5,6 C 8,5 C 19,3 km/h (3 Bft)
24.05.2023 15:54 10,6 C 12,8 C 70 % 1024,5 hPa 0,0 l/m 7,9 km/h (2 Bft) N 5 0 min 0,9 UV-I 149 W/m 5,4 C 9,5 C 20,9 km/h (4 Bft)
24.05.2023 15:57 10,6 C 12,2 C 69 % 1024,6 hPa 0,0 l/m 12,2 km/h (2 Bft) N 355 0 min 1,0 UV-I 148 W/m 5,2 C 7,1 C 17,7 km/h (3 Bft)
24.05.2023 16:00 10,5 C 11,7 C 70 % 1024,5 hPa 0,0 l/m 11,3 km/h (2 Bft) NW 324 0 min 1,0 UV-I 148 W/m 5,3 C 7,4 C 22,5 km/h (4 Bft)
24.05.2023 16:03 10,4 C 11,7 C 70 % 1024,5 hPa 0,0 l/m 11,1 km/h (2 Bft) N-NW 345 0 min 0,8 UV-I 127 W/m 5,2 C 7,4 C 20,9 km/h (4 Bft)
24.05.2023 16:06 10,4 C 11,1 C 70 % 1024,6 hPa 0,0 l/m 9,5 km/h (2 Bft) NW 304 0 min 0,7 UV-I 108 W/m 5,2 C 8,3 C 14,5 km/h (3 Bft)
24.05.2023 16:09 10,4 C 11,1 C 71 % 1024,7 hPa 0,0 l/m 5,4 km/h (1 Bft) N 5 0 min 0,7 UV-I 107 W/m 5,4 C 10,4 C 12,9 km/h (3 Bft)
24.05.2023 16:12 10,4 C 11,1 C 71 % 1024,7 hPa 0,0 l/m 11,5 km/h (2 Bft) N-NO 26 0 min 0,6 UV-I 97 W/m 5,4 C 7,2 C 20,9 km/h (4 Bft)
24.05.2023 16:15 10,3 C 11,1 C 70 % 1024,7 hPa 0,0 l/m 16,0 km/h (3 Bft) N-NW 345 0 min 0,6 UV-I 91 W/m 5,1 C 5,1 C 20,9 km/h (4 Bft)
24.05.2023 16:18 10,2 C 11,1 C 70 % 1024,7 hPa 0,0 l/m 14,0 km/h (3 Bft) N-NO 14 0 min 0,6 UV-I 98 W/m 5,0 C 5,8 C 19,3 km/h (3 Bft)
24.05.2023 16:22 10,2 C 11,1 C 71 % 1024,8 hPa 0,0 l/m 12,5 km/h (3 Bft) N-NW 344 0 min 0,6 UV-I 104 W/m 5,2 C 6,5 C 20,9 km/h (4 Bft)
24.05.2023 16:24 10,2 C 11,1 C 70 % 1024,9 hPa 0,0 l/m 17,4 km/h (3 Bft) NW 317 0 min 0,7 UV-I 112 W/m 5,0 C 4,4 C 20,9 km/h (4 Bft)
24.05.2023 16:27 10,2 C 11,1 C 71 % 1024,8 hPa 0,0 l/m 12,1 km/h (2 Bft) N 360 0 min 0,7 UV-I 119 W/m 5,2 C 6,7 C 19,3 km/h (3 Bft)
24.05.2023 16:30 10,2 C 11,7 C 71 % 1024,8 hPa 0,0 l/m 11,6 km/h (2 Bft) N-NW 342 0 min 1,0 UV-I 155 W/m 5,2 C 6,9 C 20,9 km/h (4 Bft)
24.05.2023 16:33 10,3 C 11,7 C 71 % 1024,8 hPa 0,0 l/m 12,9 km/h (3 Bft) N 355 0 min 1,1 UV-I 181 W/m 5,3 C 6,4 C 20,9 km/h (4 Bft)
24.05.2023 16:36 10,3 C 11,7 C 70 % 1024,8 hPa 0,0 l/m 15,3 km/h (3 Bft) N-NW 342 0 min 1,1 UV-I 182 W/m 5,1 C 5,4 C 24,1 km/h (4 Bft)
24.05.2023 16:39 10,3 C 12,2 C 71 % 1024,8 hPa 0,0 l/m 17,7 km/h (3 Bft) NW 323 0 min 1,2 UV-I 197 W/m 5,3 C 4,5 C 25,7 km/h (4 Bft)
24.05.2023 16:42 10,3 C 12,2 C 70 % 1024,8 hPa 0,0 l/m 15,7 km/h (3 Bft) N 5 0 min 1,0 UV-I 173 W/m 5,1 C 5,2 C 22,5 km/h (4 Bft)
24.05.2023 16:45 10,3 C 12,2 C 71 % 1024,7 hPa 0,0 l/m 13,2 km/h (3 Bft) N-NW 348 0 min 1,1 UV-I 185 W/m 5,3 C 6,3 C 19,3 km/h (3 Bft)
24.05.2023 16:48 10,4 C 12,8 C 71 % 1024,8 hPa 0,0 l/m 13,1 km/h (3 Bft) N-NW 348 0 min 1,3 UV-I 207 W/m 5,4 C 6,4 C 19,3 km/h (3 Bft)
24.05.2023 16:51 10,5 C 12,8 C 71 % 1024,7 hPa 0,0 l/m 11,8 km/h (2 Bft) N 350 0 min 1,5 UV-I 236 W/m 5,5 C 7,2 C 19,3 km/h (3 Bft)
24.05.2023 16:54 10,6 C 13,3 C 72 % 1024,8 hPa 0,0 l/m 13,4 km/h (3 Bft) N-NW 342 0 min 1,7 UV-I 246 W/m 5,8 C 6,5 C 19,3 km/h (3 Bft)
24.05.2023 16:57 10,6 C 13,3 C 70 % 1024,8 hPa 0,0 l/m 16,3 km/h (3 Bft) N 360 0 min 1,8 UV-I 248 W/m 5,4 C 5,3 C 24,1 km/h (4 Bft)
24.05.2023 17:00 10,5 C 13,9 C 70 % 1024,7 hPa 0,0 l/m 13,5 km/h (3 Bft) N-NW 348 0 min 2,0 UV-I 275 W/m 5,3 C 6,4 C 17,7 km/h (3 Bft)
24.05.2023 17:03 10,9 C 17,2 C 72 % 1024,6 hPa 0,0 l/m 11,8 km/h (2 Bft) NW 323 3 min 3,2 UV-I 364 W/m 6,1 C 7,6 C 22,5 km/h (4 Bft)
24.05.2023 17:06 11,4 C 17,8 C 69 % 1024,6 hPa 0,0 l/m 12,2 km/h (2 Bft) N-NW 337 3 min 2,2 UV-I 344 W/m 5,9 C 8,0 C 20,9 km/h (4 Bft)
24.05.2023 17:09 11,3 C 15,6 C 70 % 1024,6 hPa 0,0 l/m 13,9 km/h (3 Bft) N 360 0 min 1,2 UV-I 223 W/m 6,0 C 7,2 C 22,5 km/h (4 Bft)
24.05.2023 17:12 11,1 C 13,9 C 70 % 1024,6 hPa 0,0 l/m 10,4 km/h (2 Bft) N 5 0 min 0,8 UV-I 159 W/m 5,8 C 8,6 C 20,9 km/h (4 Bft)
24.05.2023 17:15 10,9 C 13,3 C 69 % 1024,6 hPa 0,0 l/m 12,4 km/h (3 Bft) N-NO 12 0 min 0,8 UV-I 146 W/m 5,4 C 7,4 C 24,1 km/h (4 Bft)
24.05.2023 17:18 10,9 C 12,8 C 71 % 1024,6 hPa 0,0 l/m 7,8 km/h (2 Bft) N 5 0 min 1,0 UV-I 162 W/m 5,9 C 9,9 C 19,3 km/h (3 Bft)
24.05.2023 17:21 10,8 C 12,8 C 70 % 1024,6 hPa 0,0 l/m 8,9 km/h (2 Bft) N 11 0 min 1,0 UV-I 168 W/m 5,6 C 9,1 C 12,9 km/h (3 Bft)
24.05.2023 17:24 10,9 C 12,8 C 71 % 1024,6 hPa 0,0 l/m 11,3 km/h (2 Bft) N 11 0 min 0,9 UV-I 160 W/m 5,9 C 7,9 C 20,9 km/h (4 Bft)
24.05.2023 17:27 10,8 C 12,8 C 71 % 1024,6 hPa 0,0 l/m 12,3 km/h (3 Bft) N 351 0 min 0,9 UV-I 149 W/m 5,8 C 7,3 C 17,7 km/h (3 Bft)
24.05.2023 17:30 10,8 C 12,8 C 71 % 1024,6 hPa 0,0 l/m 12,7 km/h (3 Bft) N-NO 19 0 min 0,9 UV-I 155 W/m 5,8 C 7,1 C 22,5 km/h (4 Bft)
24.05.2023 17:33 10,6 C 12,2 C 70 % 1024,7 hPa 0,0 l/m 16,0 km/h (3 Bft) N-NO 27 0 min 1,1 UV-I 177 W/m 5,4 C 5,5 C 22,5 km/h (4 Bft)
24.05.2023 17:36 10,7 C 12,8 C 72 % 1024,7 hPa 0,0 l/m 11,9 km/h (2 Bft) N 5 0 min 1,1 UV-I 191 W/m 5,9 C 7,4 C 17,7 km/h (3 Bft)
24.05.2023 17:39 10,8 C 13,3 C 73 % 1024,6 hPa 0,0 l/m 9,2 km/h (2 Bft) N-NO 14 0 min 1,1 UV-I 196 W/m 6,2 C 8,9 C 16,1 km/h (3 Bft)
24.05.2023 17:42 10,9 C 13,3 C 72 % 1024,7 hPa 0,0 l/m 12,3 km/h (3 Bft) N 360 0 min 1,2 UV-I 210 W/m 6,1 C 7,4 C 19,3 km/h (3 Bft)
24.05.2023 17:45 10,9 C 13,3 C 71 % 1024,6 hPa 0,0 l/m 12,0 km/h (2 Bft) N-NW 346 0 min 1,2 UV-I 209 W/m 5,9 C 7,6 C 22,5 km/h (4 Bft)
24.05.2023 17:48 10,9 C 13,3 C 70 % 1024,6 hPa 0,0 l/m 15,9 km/h (3 Bft) N 5 0 min 1,1 UV-I 197 W/m 5,6 C 5,9 C 27,4 km/h (4 Bft)
24.05.2023 17:51 10,8 C 12,8 C 70 % 1024,4 hPa 0,0 l/m 15,2 km/h (3 Bft) N-NW 343 0 min 1,0 UV-I 186 W/m 5,6 C 6,0 C 24,1 km/h (4 Bft)
24.05.2023 17:54 10,7 C 12,8 C 70 % 1024,5 hPa 0,0 l/m 19,9 km/h (4 Bft) N-NW 342 0 min 1,0 UV-I 183 W/m 5,5 C 4,2 C 24,1 km/h (4 Bft)
24.05.2023 17:57 10,7 C 12,2 C 71 % 1024,4 hPa 0,0 l/m 14,4 km/h (3 Bft) N 350 0 min 1,0 UV-I 183 W/m 5,7 C 6,2 C 24,1 km/h (4 Bft)
24.05.2023 18:00 10,8 C 12,8 C 70 % 1024,5 hPa 0,0 l/m 17,7 km/h (3 Bft) N 350 0 min 1,1 UV-I 197 W/m 5,6 C 5,1 C 24,1 km/h (4 Bft)
24.05.2023 18:03 10,8 C 12,8 C 71 % 1024,4 hPa 0,0 l/m 13,6 km/h (3 Bft) N-NW 344 0 min 1,1 UV-I 197 W/m 5,8 C 6,7 C 22,5 km/h (4 Bft)
24.05.2023 18:06 10,8 C 12,8 C 71 % 1024,4 hPa 0,0 l/m 15,7 km/h (3 Bft) N-NO 30 0 min 1,2 UV-I 206 W/m 5,8 C 5,8 C 22,5 km/h (4 Bft)
24.05.2023 18:09 10,9 C 12,8 C 71 % 1024,5 hPa 0,0 l/m 14,0 km/h (3 Bft) N 349 0 min 1,2 UV-I 225 W/m 5,9 C 6,6 C 22,5 km/h (4 Bft)
24.05.2023 18:12 10,8 C 12,8 C 70 % 1024,4 hPa 0,0 l/m 15,0 km/h (3 Bft) N 11 0 min 1,2 UV-I 244 W/m 5,6 C 6,1 C 22,5 km/h (4 Bft)
24.05.2023 18:15 10,9 C 13,3 C 69 % 1024,5 hPa 0,0 l/m 15,3 km/h (3 Bft) N 360 3 min 1,3 UV-I 257 W/m 5,4 C 6,1 C 20,9 km/h (4 Bft)
24.05.2023 18:18 10,9 C 13,3 C 70 % 1024,4 hPa 0,0 l/m 12,8 km/h (3 Bft) N 351 3 min 1,2 UV-I 259 W/m 5,6 C 7,2 C 19,3 km/h (3 Bft)
24.05.2023 18:21 11,2 C 13,9 C 71 % 1024,4 hPa 0,0 l/m 11,0 km/h (2 Bft) N-NW 342 0 min 1,1 UV-I 226 W/m 6,1 C 8,4 C 17,7 km/h (3 Bft)
24.05.2023 18:24 11,1 C 13,3 C 71 % 1024,3 hPa 0,0 l/m 15,4 km/h (3 Bft) N 5 0 min 1,0 UV-I 194 W/m 6,0 C 6,3 C 22,5 km/h (4 Bft)
24.05.2023 18:27 11,0 C 13,3 C 71 % 1024,3 hPa 0,0 l/m 15,8 km/h (3 Bft) N 11 0 min 1,0 UV-I 190 W/m 5,9 C 6,0 C 22,5 km/h (4 Bft)
24.05.2023 18:30 11,0 C 13,3 C 71 % 1024,3 hPa 0,0 l/m 10,8 km/h (2 Bft) N 360 0 min 1,0 UV-I 194 W/m 5,9 C 8,3 C 20,9 km/h (4 Bft)
24.05.2023 18:33 11,1 C 13,3 C 71 % 1024,1 hPa 0,0 l/m 12,0 km/h (2 Bft) N 360 0 min 1,1 UV-I 210 W/m 6,0 C 7,8 C 19,3 km/h (3 Bft)
24.05.2023 18:36 11,2 C 13,9 C 72 % 1024,3 hPa 0,0 l/m 9,7 km/h (2 Bft) N 360 3 min 1,2 UV-I 247 W/m 6,3 C 9,1 C 16,1 km/h (3 Bft)
24.05.2023 18:39 11,2 C 13,9 C 71 % 1024,1 hPa 0,0 l/m 14,6 km/h (3 Bft) N-NO 30 0 min 1,1 UV-I 204 W/m 6,1 C 6,7 C 19,3 km/h (3 Bft)
24.05.2023 18:42 11,1 C 13,3 C 70 % 1024,2 hPa 0,0 l/m 13,4 km/h (3 Bft) N 349 0 min 1,1 UV-I 200 W/m 5,8 C 7,1 C 19,3 km/h (3 Bft)
24.05.2023 18:45 10,9 C 13,3 C 71 % 1024,2 hPa 0,0 l/m 15,2 km/h (3 Bft) N-NW 342 0 min 1,0 UV-I 191 W/m 5,9 C 6,1 C 20,9 km/h (4 Bft)
24.05.2023 18:48 11,0 C 13,3 C 71 % 1024,1 hPa 0,0 l/m 13,3 km/h (3 Bft) N-NO 17 0 min 0,9 UV-I 163 W/m 5,9 C 7,1 C 22,5 km/h (4 Bft)
24.05.2023 18:51 10,9 C 12,8 C 71 % 1024,2 hPa 0,0 l/m 12,8 km/h (3 Bft) N-NO 22 0 min 0,8 UV-I 153 W/m 5,9 C 7,2 C 19,3 km/h (3 Bft)
24.05.2023 18:54 10,8 C 12,8 C 71 % 1024,1 hPa 0,0 l/m 12,9 km/h (3 Bft) N-NO 32 0 min 0,8 UV-I 149 W/m 5,8 C 7,0 C 20,9 km/h (4 Bft)
24.05.2023 18:57 10,8 C 12,2 C 71 % 1024,1 hPa 0,0 l/m 16,1 km/h (3 Bft) N-NO 22 0 min 0,6 UV-I 127 W/m 5,8 C 5,7 C 24,1 km/h (4 Bft)
24.05.2023 19:00 10,7 C 12,2 C 72 % 1024,2 hPa 0,0 l/m 13,7 km/h (3 Bft) N-NO 12 0 min 0,6 UV-I 113 W/m 5,9 C 6,5 C 19,3 km/h (3 Bft)
24.05.2023 19:03 10,7 C 11,7 C 72 % 1024,1 hPa 0,0 l/m 13,7 km/h (3 Bft) N-NW 341 0 min 0,2 UV-I 94 W/m 5,9 C 6,5 C 20,9 km/h (4 Bft)
24.05.2023 19:06 10,6 C 11,7 C 73 % 1024,2 hPa 0,0 l/m 11,1 km/h (2 Bft) N 355 0 min 0,2 UV-I 94 W/m 6,0 C 7,7 C 17,7 km/h (3 Bft)
24.05.2023 19:09 10,6 C 11,7 C 72 % 1024,2 hPa 0,0 l/m 15,5 km/h (3 Bft) N-NW 338 0 min 0,5 UV-I 110 W/m 5,8 C 5,7 C 20,9 km/h (4 Bft)
24.05.2023 19:12 10,6 C 11,7 C 72 % 1024,2 hPa 0,0 l/m 13,1 km/h (3 Bft) N 349 0 min 0,6 UV-I 125 W/m 5,8 C 6,7 C 19,3 km/h (3 Bft)
24.05.2023 19:15 10,7 C 11,7 C 72 % 1024,2 hPa 0,0 l/m 11,7 km/h (2 Bft) N-NO 21 0 min 0,6 UV-I 133 W/m 5,9 C 7,5 C 17,7 km/h (3 Bft)
24.05.2023 19:18 10,6 C 12,2 C 72 % 1024,2 hPa 0,0 l/m 13,7 km/h (3 Bft) N-NO 20 0 min 0,6 UV-I 135 W/m 5,8 C 6,4 C 19,3 km/h (3 Bft)
24.05.2023 19:21 10,7 C 11,7 C 73 % 1024,2 hPa 0,0 l/m 10,9 km/h (2 Bft) N 355 0 min 0,6 UV-I 129 W/m 6,1 C 7,9 C 19,3 km/h (3 Bft)
24.05.2023 19:24 10,7 C 11,7 C 73 % 1024,2 hPa 0,0 l/m 9,2 km/h (2 Bft) N-NO 32 0 min 0,5 UV-I 119 W/m 6,1 C 8,8 C 14,5 km/h (3 Bft)
24.05.2023 19:27 10,6 C 11,7 C 72 % 1024,2 hPa 0,0 l/m 16,4 km/h (3 Bft) N-NW 342 0 min 0,0 UV-I 98 W/m 5,8 C 5,3 C 20,9 km/h (4 Bft)
24.05.2023 19:30 10,6 C 11,7 C 73 % 1024,3 hPa 0,0 l/m 10,0 km/h (2 Bft) N 360 0 min 0,0 UV-I 73 W/m 6,0 C 8,3 C 19,3 km/h (3 Bft)
24.05.2023 19:33 10,5 C 11,1 C 73 % 1024,3 hPa 0,0 l/m 6,9 km/h (2 Bft) N 5 0 min 0,0 UV-I 58 W/m 5,9 C 10,2 C 12,9 km/h (3 Bft)
24.05.2023 19:36 10,4 C 11,1 C 73 % 1024,4 hPa 0,0 l/m 9,8 km/h (2 Bft) N 360 0 min 0,0 UV-I 47 W/m 5,8 C 8,2 C 17,7 km/h (3 Bft)
24.05.2023 19:39 10,3 C 10,6 C 73 % 1024,4 hPa 0,0 l/m 8,9 km/h (2 Bft) N 350 0 min 0,0 UV-I 40 W/m 5,7 C 8,6 C 17,7 km/h (3 Bft)
24.05.2023 19:42 10,3 C 10,6 C 73 % 1024,4 hPa 0,0 l/m 11,3 km/h (2 Bft) N 360 0 min 0,0 UV-I 35 W/m 5,7 C 7,2 C 17,7 km/h (3 Bft)
24.05.2023 19:45 10,2 C 10,6 C 74 % 1024,4 hPa 0,0 l/m 11,8 km/h (2 Bft) N 355 0 min 0,0 UV-I 26 W/m 5,8 C 6,8 C 19,3 km/h (3 Bft)
24.05.2023 19:48 10,2 C 10,0 C 74 % 1024,5 hPa 0,0 l/m 10,6 km/h (2 Bft) N 360 0 min 0,0 UV-I 19 W/m 5,8 C 7,5 C 17,7 km/h (3 Bft)
24.05.2023 19:51 10,1 C 10,0 C 74 % 1024,3 hPa 0,0 l/m 11,6 km/h (2 Bft) N 360 0 min 0,0 UV-I 20 W/m 5,7 C 6,8 C 17,7 km/h (3 Bft)
24.05.2023 19:54 10,1 C 10,0 C 74 % 1024,4 hPa 0,0 l/m 12,5 km/h (3 Bft) N 5 0 min 0,0 UV-I 21 W/m 5,7 C 6,4 C 22,5 km/h (4 Bft)
24.05.2023 19:57 10,1 C 10,0 C 75 % 1024,4 hPa 0,0 l/m 8,1 km/h (2 Bft) N 5 0 min 0,0 UV-I 23 W/m 5,9 C 8,9 C 14,5 km/h (3 Bft)
24.05.2023 20:00 10,0 C 10,0 C 75 % 1024,4 hPa 0,0 l/m 8,7 km/h (2 Bft) N-NO 20 0 min 0,0 UV-I 24 W/m 5,8 C 8,4 C 20,9 km/h (4 Bft)
24.05.2023 20:03 9,9 C 10,0 C 75 % 1024,4 hPa 0,0 l/m 15,1 km/h (3 Bft) N-NW 348 0 min 0,0 UV-I 18 W/m 5,7 C 5,0 C 20,9 km/h (4 Bft)
24.05.2023 20:06 9,9 C 9,4 C 75 % 1024,4 hPa 0,0 l/m 12,2 km/h (2 Bft) N-NO 12 0 min 0,0 UV-I 12 W/m 5,7 C 6,3 C 19,3 km/h (3 Bft)
24.05.2023 20:09 9,9 C 9,4 C 75 % 1024,5 hPa 0,0 l/m 10,3 km/h (2 Bft) N 9 0 min 0,0 UV-I 11 W/m 5,7 C 7,3 C 19,3 km/h (3 Bft)
24.05.2023 20:12 9,8 C 9,4 C 76 % 1024,4 hPa 0,0 l/m 10,9 km/h (2 Bft) N 9 0 min 0,0 UV-I 10 W/m 5,8 C 6,9 C 16,1 km/h (3 Bft)
24.05.2023 20:15 9,8 C 9,4 C 76 % 1024,4 hPa 0,0 l/m 8,6 km/h (2 Bft) N 351 0 min 0,0 UV-I 9 W/m 5,8 C 8,2 C 12,9 km/h (3 Bft)
24.05.2023 20:18 9,7 C 9,4 C 77 % 1024,5 hPa 0,0 l/m 7,1 km/h (2 Bft) N 11 0 min 0,0 UV-I 12 W/m 5,9 C 9,2 C 12,9 km/h (3 Bft)
24.05.2023 20:22 9,6 C 9,4 C 78 % 1024,5 hPa 0,0 l/m 5,8 km/h (2 Bft) N-NO 13 0 min 0,0 UV-I 21 W/m 6,0 C 9,6 C 8,0 km/h (2 Bft)
24.05.2023 20:24 9,6 C 9,4 C 78 % 1024,5 hPa 0,0 l/m 5,7 km/h (1 Bft) N-NO 12 0 min 0,0 UV-I 33 W/m 6,0 C 9,6 C 8,0 km/h (2 Bft)
24.05.2023 20:27 9,6 C 9,4 C 78 % 1024,6 hPa 0,0 l/m 7,6 km/h (2 Bft) N-NO 14 0 min 0,0 UV-I 35 W/m 6,0 C 8,7 C 12,9 km/h (3 Bft)
24.05.2023 20:30 9,6 C 9,4 C 78 % 1024,6 hPa 0,0 l/m 6,0 km/h (2 Bft) N-NW 346 0 min 0,0 UV-I 35 W/m 6,0 C 9,6 C 11,3 km/h (2 Bft)
24.05.2023 20:33 9,6 C 9,4 C 78 % 1024,6 hPa 0,0 l/m 6,1 km/h (2 Bft) N-NW 340 0 min 0,0 UV-I 30 W/m 6,0 C 9,6 C 9,7 km/h (2 Bft)
24.05.2023 20:36 9,6 C 9,4 C 78 % 1024,6 hPa 0,0 l/m 6,7 km/h (2 Bft) N-NO 14 0 min 0,0 UV-I 26 W/m 6,0 C 9,4 C 11,3 km/h (2 Bft)
24.05.2023 20:39 9,5 C 9,4 C 79 % 1024,6 hPa 0,0 l/m 4,7 km/h (1 Bft) N-NO 15 0 min 0,0 UV-I 25 W/m 6,0 C 9,5 C 8,0 km/h (2 Bft)
24.05.2023 20:42 9,5 C 9,4 C 78 % 1024,8 hPa 0,0 l/m 9,8 km/h (2 Bft) N 9 0 min 0,0 UV-I 22 W/m 5,9 C 7,2 C 14,5 km/h (3 Bft)
24.05.2023 20:45 9,4 C 9,4 C 78 % 1024,7 hPa 0,0 l/m 8,9 km/h (2 Bft) N 360 0 min 0,0 UV-I 21 W/m 5,8 C 7,6 C 14,5 km/h (3 Bft)
24.05.2023 20:48 9,4 C 9,4 C 77 % 1024,7 hPa 0,0 l/m 9,9 km/h (2 Bft) N-NO 13 0 min 0,0 UV-I 19 W/m 5,6 C 7,0 C 16,1 km/h (3 Bft)
24.05.2023 20:51 9,4 C 8,9 C 78 % 1024,7 hPa 0,0 l/m 6,1 km/h (2 Bft) N-NO 15 0 min 0,0 UV-I 18 W/m 5,8 C 9,4 C 9,7 km/h (2 Bft)
24.05.2023 20:54 9,4 C 8,9 C 78 % 1024,8 hPa 0,0 l/m 6,2 km/h (2 Bft) N-NO 14 0 min 0,0 UV-I 18 W/m 5,8 C 9,4 C 11,3 km/h (2 Bft)
24.05.2023 20:57 9,3 C 8,9 C 78 % 1024,7 hPa 0,0 l/m 7,2 km/h (2 Bft) N 355 0 min 0,0 UV-I 18 W/m 5,7 C 8,7 C 14,5 km/h (3 Bft)
24.05.2023 21:00 9,3 C 8,9 C 78 % 1024,7 hPa 0,0 l/m 8,9 km/h (2 Bft) N 355 0 min 0,0 UV-I 17 W/m 5,7 C 7,5 C 12,9 km/h (3 Bft)
24.05.2023 21:03 9,2 C 8,9 C 78 % 1024,8 hPa 0,0 l/m 6,8 km/h (2 Bft) N 360 0 min 0,0 UV-I 16 W/m 5,6 C 8,9 C 12,9 km/h (3 Bft)
24.05.2023 21:06 9,1 C 8,3 C 78 % 1024,8 hPa 0,0 l/m 8,2 km/h (2 Bft) N-NO 14 0 min 0,0 UV-I 14 W/m 5,5 C 7,8 C 14,5 km/h (3 Bft)
24.05.2023 21:09 9,1 C 8,3 C 78 % 1024,9 hPa 0,0 l/m 6,9 km/h (2 Bft) N 350 0 min 0,0 UV-I 13 W/m 5,5 C 8,7 C 16,1 km/h (3 Bft)
24.05.2023 21:12 9,0 C 8,3 C 78 % 1024,9 hPa 0,0 l/m 4,9 km/h (1 Bft) N 5 0 min 0,0 UV-I 12 W/m 5,4 C 9,0 C 8,0 km/h (2 Bft)
24.05.2023 21:15 8,9 C 8,3 C 79 % 1024,9 hPa 0,0 l/m 4,1 km/h (1 Bft) N 5 0 min 0,0 UV-I 11 W/m 5,5 C 8,9 C 6,4 km/h (2 Bft)
24.05.2023 21:18 8,9 C 8,3 C 79 % 1024,9 hPa 0,0 l/m 4,6 km/h (1 Bft) N 5 0 min 0,0 UV-I 10 W/m 5,5 C 8,9 C 8,0 km/h (2 Bft)
24.05.2023 21:21 8,8 C 7,8 C 79 % 1024,9 hPa 0,0 l/m 4,7 km/h (1 Bft) N 5 0 min 0,0 UV-I 8 W/m 5,4 C 8,8 C 8,0 km/h (2 Bft)
24.05.2023 21:24 8,7 C 7,8 C 80 % 1024,9 hPa 0,0 l/m 5,4 km/h (1 Bft) N 5 0 min 0,0 UV-I 6 W/m 5,4 C 8,7 C 8,0 km/h (2 Bft)
24.05.2023 21:27 8,6 C 7,8 C 80 % 1024,9 hPa 0,0 l/m 4,1 km/h (1 Bft) N 5 0 min 0,0 UV-I 5 W/m 5,3 C 8,6 C 6,4 km/h (2 Bft)
24.05.2023 21:30 8,4 C 7,2 C 80 % 1024,9 hPa 0,0 l/m 5,4 km/h (1 Bft) N 5 0 min 0,0 UV-I 1 W/m 5,2 C 8,4 C 8,0 km/h (2 Bft)
24.05.2023 21:33 8,3 C 6,7 C 80 % 1025,1 hPa 0,0 l/m 4,9 km/h (1 Bft) N 5 0 min 0,0 UV-I 0 W/m 5,1 C 8,3 C 6,4 km/h (2 Bft)
24.05.2023 21:36 8,2 C 6,7 C 81 % 1025,0 hPa 0,0 l/m 6,6 km/h (2 Bft) N 5 0 min 0,0 UV-I 0 W/m 5,1 C 8,1 C 8,0 km/h (2 Bft)
24.05.2023 21:39 8,1 C 6,1 C 81 % 1025,0 hPa 0,0 l/m 6,4 km/h (2 Bft) N 349 0 min 0,0 UV-I 0 W/m 5,0 C 8,1 C 8,0 km/h (2 Bft)
24.05.2023 21:42 7,9 C 5,6 C 82 % 1025,1 hPa 0,0 l/m 5,9 km/h (2 Bft) N 351 0 min 0,0 UV-I 0 W/m 5,0 C 7,9 C 8,0 km/h (2 Bft)
24.05.2023 21:45 7,9 C 5,6 C 82 % 1025,1 hPa 0,0 l/m 5,9 km/h (2 Bft) N 360 0 min 0,0 UV-I 0 W/m 5,0 C 7,9 C 8,0 km/h (2 Bft)
24.05.2023 21:48 7,7 C 5,6 C 82 % 1025,2 hPa 0,0 l/m 7,1 km/h (2 Bft) N 360 0 min 0,0 UV-I 0 W/m 4,8 C 7,1 C 9,7 km/h (2 Bft)
24.05.2023 21:51 7,7 C 5,6 C 82 % 1025,1 hPa 0,0 l/m 6,2 km/h (2 Bft) N 5 0 min 0,0 UV-I 0 W/m 4,8 C 7,7 C 8,0 km/h (2 Bft)
24.05.2023 21:54 7,6 C 5,0 C 82 % 1025,2 hPa 0,0 l/m 5,3 km/h (1 Bft) N 5 0 min 0,0 UV-I 0 W/m 4,7 C 7,6 C 6,4 km/h (2 Bft)
24.05.2023 21:57 7,7 C 5,6 C 82 % 1025,3 hPa 0,0 l/m 5,4 km/h (1 Bft) N 5 0 min 0,0 UV-I 0 W/m 4,8 C 7,7 C 8,0 km/h (2 Bft)
24.05.2023 22:00 7,6 C 5,6 C 83 % 1025,4 hPa 0,0 l/m 6,3 km/h (2 Bft) N 360 0 min 0,0 UV-I 0 W/m 4,9 C 7,6 C 8,0 km/h (2 Bft)
24.05.2023 22:03 7,7 C 5,6 C 83 % 1025,3 hPa 0,0 l/m 6,7 km/h (2 Bft) N 355 0 min 0,0 UV-I 0 W/m 5,0 C 7,5 C 9,7 km/h (2 Bft)
24.05.2023 22:06 7,7 C 5,6 C 83 % 1025,5 hPa 0,0 l/m 7,0 km/h (2 Bft) N 355 0 min 0,0 UV-I 0 W/m 5,0 C 7,2 C 8,0 km/h (2 Bft)
24.05.2023 22:09 7,6 C 5,6 C 83 % 1025,5 hPa 0,0 l/m 7,3 km/h (2 Bft) N 5 0 min 0,0 UV-I 0 W/m 4,9 C 6,9 C 9,7 km/h (2 Bft)
24.05.2023 22:12 7,7 C 5,6 C 83 % 1025,5 hPa 0,0 l/m 8,3 km/h (2 Bft) N 355 0 min 0,0 UV-I 0 W/m 5,0 C 6,2 C 12,9 km/h (3 Bft)
24.05.2023 22:15 7,7 C 5,6 C 82 % 1025,4 hPa 0,0 l/m 7,2 km/h (2 Bft) N 355 0 min 0,0 UV-I 0 W/m 4,8 C 7,1 C 9,7 km/h (2 Bft)
24.05.2023 22:18 7,6 C 5,6 C 82 % 1025,5 hPa 0,0 l/m 6,8 km/h (2 Bft) N 360 0 min 0,0 UV-I 0 W/m 4,7 C 7,3 C 9,7 km/h (2 Bft)
24.05.2023 22:21 7,4 C 5,0 C 83 % 1025,5 hPa 0,0 l/m 7,0 km/h (2 Bft) N 355 0 min 0,0 UV-I 0 W/m 4,7 C 6,9 C 8,0 km/h (2 Bft)
24.05.2023 22:24 7,3 C 5,0 C 83 % 1025,5 hPa 0,0 l/m 6,6 km/h (2 Bft) N 355 0 min 0,0 UV-I 0 W/m 4,6 C 7,2 C 8,0 km/h (2 Bft)
24.05.2023 22:27 7,2 C 5,0 C 83 % 1025,5 hPa 0,0 l/m 7,4 km/h (2 Bft) N 5 0 min 0,0 UV-I 0 W/m 4,5 C 6,4 C 9,7 km/h (2 Bft)
24.05.2023 22:30 7,2 C 5,0 C 83 % 1025,5 hPa 0,0 l/m 5,3 km/h (1 Bft) N 9 0 min 0,0 UV-I 0 W/m 4,5 C 7,2 C 8,0 km/h (2 Bft)
24.05.2023 22:33 7,1 C 4,4 C 83 % 1025,6 hPa 0,0 l/m 5,1 km/h (1 Bft) N 5 0 min 0,0 UV-I 0 W/m 4,4 C 7,1 C 6,4 km/h (2 Bft)
24.05.2023 22:36 7,1 C 4,4 C 83 % 1025,5 hPa 0,0 l/m 5,0 km/h (1 Bft) N 5 0 min 0,0 UV-I 0 W/m 4,4 C 7,1 C 8,0 km/h (2 Bft)
24.05.2023 22:39 7,0 C 4,4 C 84 % 1025,6 hPa 0,0 l/m 5,9 km/h (2 Bft) N 9 0 min 0,0 UV-I 0 W/m 4,5 C 7,0 C 8,0 km/h (2 Bft)
24.05.2023 22:42 6,8 C 4,4 C 84 % 1025,6 hPa 0,0 l/m 5,6 km/h (1 Bft) N-NO 16 0 min 0,0 UV-I 0 W/m 4,3 C 6,8 C 8,0 km/h (2 Bft)
24.05.2023 22:45 6,7 C 4,4 C 84 % 1025,7 hPa 0,0 l/m 3,7 km/h (1 Bft) N-NO 14 0 min 0,0 UV-I 0 W/m 4,2 C 6,7 C 6,4 km/h (2 Bft)
24.05.2023 22:48 6,6 C 3,9 C 84 % 1025,7 hPa 0,0 l/m 3,6 km/h (1 Bft) N-NO 14 0 min 0,0 UV-I 0 W/m 4,1 C 6,6 C 6,4 km/h (2 Bft)
24.05.2023 22:51 6,4 C 3,9 C 84 % 1025,5 hPa 0,0 l/m 3,1 km/h (1 Bft) N-NO 15 0 min 0,0 UV-I 0 W/m 3,9 C 6,4 C 6,4 km/h (2 Bft)
24.05.2023 22:54 6,3 C 3,9 C 85 % 1025,7 hPa 0,0 l/m 2,5 km/h (1 Bft) N-NO 15 0 min 0,0 UV-I 0 W/m 4,0 C 6,3 C 4,8 km/h (1 Bft)
24.05.2023 22:57 6,2 C 3,9 C 85 % 1025,6 hPa 0,0 l/m 2,4 km/h (1 Bft) N-NO 15 0 min 0,0 UV-I 0 W/m 3,9 C 6,2 C 4,8 km/h (1 Bft)
24.05.2023 23:00 6,2 C 3,9 C 86 % 1025,6 hPa 0,0 l/m 3,8 km/h (1 Bft) N-NO 13 0 min 0,0 UV-I 0 W/m 4,0 C 6,2 C 6,4 km/h (2 Bft)
24.05.2023 23:03 6,2 C 3,9 C 86 % 1025,6 hPa 0,0 l/m 5,4 km/h (1 Bft) N 5 0 min 0,0 UV-I 0 W/m 4,0 C 6,2 C 8,0 km/h (2 Bft)
24.05.2023 23:06 6,3 C 3,9 C 86 % 1025,5 hPa 0,0 l/m 3,8 km/h (1 Bft) N 360 0 min 0,0 UV-I 0 W/m 4,1 C 6,3 C 8,0 km/h (2 Bft)
24.05.2023 23:09 6,3 C 3,9 C 86 % 1025,6 hPa 0,0 l/m 5,8 km/h (2 Bft) N 350 0 min 0,0 UV-I 0 W/m 4,1 C 6,3 C 8,0 km/h (2 Bft)
24.05.2023 23:12 6,4 C 3,9 C 86 % 1025,5 hPa 0,0 l/m 5,9 km/h (2 Bft) N-NW 348 0 min 0,0 UV-I 0 W/m 4,2 C 6,4 C 9,7 km/h (2 Bft)
24.05.2023 23:15 6,5 C 3,9 C 86 % 1025,6 hPa 0,0 l/m 6,0 km/h (2 Bft) N-NO 14 0 min 0,0 UV-I 0 W/m 4,3 C 6,5 C 12,9 km/h (3 Bft)
24.05.2023 23:18 6,2 C 3,9 C 85 % 1025,7 hPa 0,0 l/m 2,2 km/h (1 Bft) N-NO 14 0 min 0,0 UV-I 0 W/m 3,9 C 6,2 C 4,8 km/h (1 Bft)
24.05.2023 23:21 5,8 C 3,9 C 85 % 1025,8 hPa 0,0 l/m 0,3 km/h (0 Bft) N-NO 14 0 min 0,0 UV-I 0 W/m 3,5 C 5,8 C 1,6 km/h (1 Bft)
24.05.2023 23:24 5,6 C 3,9 C 86 % 1025,8 hPa 0,0 l/m 0,2 km/h (0 Bft) N-NO 14 0 min 0,0 UV-I 0 W/m 3,4 C 5,6 C 1,6 km/h (1 Bft)
24.05.2023 23:27 5,6 C 3,3 C 86 % 1025,7 hPa 0,0 l/m 0,1 km/h (0 Bft) N-NO 14 0 min 0,0 UV-I 0 W/m 3,4 C 5,6 C 1,6 km/h (1 Bft)
24.05.2023 23:30 5,6 C 3,3 C 87 % 1025,8 hPa 0,0 l/m 0,1 km/h (0 Bft) N-NO 14 0 min 0,0 UV-I 0 W/m 3,6 C 5,6 C 1,6 km/h (1 Bft)
24.05.2023 23:33 5,7 C 3,9 C 87 % 1025,7 hPa 0,0 l/m 0,0 km/h (0 Bft) N-NO 14 0 min 0,0 UV-I 0 W/m 3,7 C 5,7 C 1,6 km/h (1 Bft)
24.05.2023 23:36 5,7 C 3,3 C 87 % 1025,8 hPa 0,0 l/m 1,5 km/h (1 Bft) N-NO 14 0 min 0,0 UV-I 0 W/m 3,7 C 5,7 C 4,8 km/h (1 Bft)
24.05.2023 23:39 5,7 C 3,3 C 87 % 1025,7 hPa 0,0 l/m 2,4 km/h (1 Bft) N-NO 14 0 min 0,0 UV-I 0 W/m 3,7 C 5,7 C 3,2 km/h (1 Bft)
24.05.2023 23:42 5,4 C 3,3 C 86 % 1025,8 hPa 0,0 l/m 1,0 km/h (0 Bft) N-NO 14 0 min 0,0 UV-I 0 W/m 3,3 C 5,4 C 3,2 km/h (1 Bft)
24.05.2023 23:45 5,2 C 3,3 C 87 % 1025,8 hPa 0,0 l/m 0,0 km/h (0 Bft) N-NO 14 0 min 0,0 UV-I 0 W/m 3,2 C 5,2 C 0,0 km/h (0 Bft)
24.05.2023 23:48 5,2 C 3,3 C 87 % 1025,8 hPa 0,0 l/m 0,0 km/h (0 Bft) N-NO 14 0 min 0,0 UV-I 0 W/m 3,2 C 5,2 C 0,0 km/h (0 Bft)
24.05.2023 23:51 5,2 C 3,3 C 88 % 1025,8 hPa 0,0 l/m 0,5 km/h (0 Bft) N-NO 14 0 min 0,0 UV-I 0 W/m 3,4 C 5,2 C 3,2 km/h (1 Bft)
24.05.2023 23:54 5,2 C 3,3 C 88 % 1025,8 hPa 0,0 l/m 1,2 km/h (1 Bft) N-NO 14 0 min 0,0 UV-I 0 W/m 3,4 C 5,2 C 3,2 km/h (1 Bft)
24.05.2023 23:57 5,3 C 3,3 C 88 % 1025,8 hPa 0,0 l/m 0,2 km/h (0 Bft) N-NO 14 0 min 0,0 UV-I 0 W/m 3,5 C 5,3 C 1,6 km/h (1 Bft)
_ Min-Zeit 06:18 05:24 11:36 01:06 - 05:45 - - - - - 05:45 09:06 05:45
Minimum _ 1,6 C 0,0 C 64 % 1023,4 hPa - 0,0 km/h (0 Bft) - - - - - 0,1 C 0,8 C 0,0 km/h (0 Bft)
_ Max-Zeit 12:39 12:39 06:06 23:21 00:00 13:00 - - 07:18 12:36 12:39 12:36 15:39 10:18
Maximum _ 12,3 C 22,8 C 90 % 1025,8 hPa 0,0 l/m 20,7 km/h
N-NW (4 Bft)
- - 3 min 5,9 UV-I 1040 W/m 6,7 C 11,5 C 33,8 km/h
NW (5 Bft)
Durchschnitt _ 7,9 C 9,1 C 78 % 1024,6 hPa #0,0 l/m 9,3 km/h (2 Bft) N - #6:03 h 2,3 UV-I 302 W/m 4,1 C 5,6 C 14,8 km/h (3 Bft)